Wetterdaten: Donnerstag, 30.09.2021
Datum Zeit Temp. Aussen Temp. o. S. Temp +5cm Feuchte Auss Luftdruck Regen Sonnenschein Regendauer Solar Windben Empfang
30.09.2021 00:00 9,3 C 8,9 C 8,4 C 91 % 1023,7 hPa 0,0 l/m 0 min 0 min 0 W/m 12,9 km/h (3 Bft) 100,00 %
30.09.2021 00:02 9,3 C 8,9 C 8,4 C 91 % 1023,8 hPa 0,0 l/m 0 min 0 min 0 W/m 6,4 km/h (2 Bft) 100,00 %
30.09.2021 00:04 9,3 C 8,9 C 8,4 C 91 % 1023,8 hPa 0,0 l/m 0 min 0 min 0 W/m 6,4 km/h (2 Bft) 100,00 %
30.09.2021 00:08 9,3 C 8,3 C 8,4 C 91 % 1023,8 hPa 0,0 l/m 0 min 0 min 0 W/m 16,1 km/h (3 Bft) 98,94 %
30.09.2021 00:10 9,3 C 8,9 C 8,4 C 91 % 1023,8 hPa 0,0 l/m 0 min 0 min 0 W/m 16,1 km/h (3 Bft) 100,00 %
30.09.2021 00:12 9,3 C 8,9 C 8,4 C 91 % 1023,8 hPa 0,0 l/m 0 min 0 min 0 W/m 6,4 km/h (2 Bft) 97,83 %
30.09.2021 00:14 9,3 C 8,3 C 8,4 C 91 % 1023,8 hPa 0,0 l/m 0 min 0 min 0 W/m 3,2 km/h (1 Bft) 100,00 %
30.09.2021 00:16 9,3 C 8,3 C 8,4 C 91 % 1023,8 hPa 0,0 l/m 0 min 0 min 0 W/m 6,4 km/h (2 Bft) 100,00 %
30.09.2021 00:18 9,3 C 8,3 C 8,4 C 91 % 1023,8 hPa 0,0 l/m 0 min 0 min 0 W/m 6,4 km/h (2 Bft) 100,00 %
30.09.2021 00:20 9,3 C 8,3 C 8,4 C 91 % 1023,9 hPa 0,0 l/m 0 min 0 min 0 W/m 9,7 km/h (2 Bft) 97,87 %
30.09.2021 00:22 9,3 C 8,9 C 8,4 C 91 % 1023,9 hPa 0,0 l/m 0 min 0 min 0 W/m 6,4 km/h (2 Bft) 100,00 %
30.09.2021 00:24 9,3 C 8,3 C 8,4 C 90 % 1023,9 hPa 0,0 l/m 0 min 0 min 0 W/m 16,1 km/h (3 Bft) 100,00 %
30.09.2021 00:26 9,3 C 8,9 C 8,4 C 90 % 1023,9 hPa 0,0 l/m 0 min 0 min 0 W/m 6,4 km/h (2 Bft) 100,00 %
30.09.2021 00:28 9,3 C 8,3 C 8,4 C 90 % 1023,9 hPa 0,0 l/m 0 min 0 min 0 W/m 6,4 km/h (2 Bft) 95,74 %
30.09.2021 00:30 9,3 C 8,3 C 8,4 C 90 % 1023,9 hPa 0,0 l/m 0 min 0 min 0 W/m 3,2 km/h (1 Bft) 100,00 %
30.09.2021 00:32 9,3 C 8,3 C 8,4 C 90 % 1024,0 hPa 0,0 l/m 0 min 0 min 0 W/m 9,7 km/h (2 Bft) 100,00 %
30.09.2021 00:34 9,3 C 8,3 C 8,4 C 90 % 1024,0 hPa 0,0 l/m 0 min 0 min 0 W/m 3,2 km/h (1 Bft) 97,87 %
30.09.2021 00:36 9,3 C 8,3 C 8,4 C 90 % 1024,1 hPa 0,0 l/m 0 min 0 min 0 W/m 6,4 km/h (2 Bft) 97,83 %
30.09.2021 00:38 9,2 C 8,3 C 8,4 C 90 % 1024,0 hPa 0,0 l/m 0 min 0 min 0 W/m 6,4 km/h (2 Bft) 100,00 %
30.09.2021 00:40 9,2 C 8,3 C 8,4 C 90 % 1024,0 hPa 0,0 l/m 0 min 0 min 0 W/m 3,2 km/h (1 Bft) 100,00 %
30.09.2021 00:42 9,2 C 8,3 C 7,8 C 91 % 1024,0 hPa 0,0 l/m 0 min 0 min 0 W/m 6,4 km/h (2 Bft) 97,87 %
30.09.2021 00:44 9,2 C 8,3 C 7,8 C 91 % 1024,1 hPa 0,0 l/m 0 min 0 min 0 W/m 6,4 km/h (2 Bft) 100,00 %
30.09.2021 00:46 9,1 C 8,3 C 7,8 C 91 % 1024,0 hPa 0,0 l/m 0 min 0 min 0 W/m 6,4 km/h (2 Bft) 97,87 %
30.09.2021 00:48 9,1 C 8,3 C 7,8 C 91 % 1024,0 hPa 0,0 l/m 0 min 0 min 0 W/m 6,4 km/h (2 Bft) 97,83 %
30.09.2021 00:50 9,1 C 8,3 C 8,4 C 91 % 1024,1 hPa 0,0 l/m 0 min 0 min 0 W/m 9,7 km/h (2 Bft) 97,87 %
30.09.2021 00:52 9,1 C 8,3 C 8,4 C 91 % 1024,1 hPa 0,0 l/m 0 min 0 min 0 W/m 12,9 km/h (3 Bft) 97,87 %
30.09.2021 00:54 9,1 C 8,3 C 8,4 C 91 % 1024,1 hPa 0,0 l/m 0 min 0 min 0 W/m 9,7 km/h (2 Bft) 97,87 %
30.09.2021 00:56 9,1 C 8,3 C 8,4 C 91 % 1024,1 hPa 0,0 l/m 0 min 0 min 0 W/m 12,9 km/h (3 Bft) 95,74 %
30.09.2021 00:58 9,1 C 8,3 C 7,8 C 91 % 1024,1 hPa 0,0 l/m 0 min 0 min 0 W/m 12,9 km/h (3 Bft) 97,87 %
30.09.2021 01:00 9,1 C 8,3 C 7,8 C 91 % 1024,1 hPa 0,0 l/m 0 min 0 min 0 W/m 6,4 km/h (2 Bft) 97,56 %
30.09.2021 01:02 9,1 C 8,3 C 7,8 C 91 % 1024,0 hPa 0,0 l/m 0 min 0 min 0 W/m 6,4 km/h (2 Bft) 93,88 %
30.09.2021 01:04 9,1 C 8,3 C 7,8 C 91 % 1024,1 hPa 0,0 l/m 0 min 0 min 0 W/m 3,2 km/h (1 Bft) 95,74 %
30.09.2021 01:06 9,0 C 8,3 C 7,8 C 91 % 1024,1 hPa 0,0 l/m 0 min 0 min 0 W/m 3,2 km/h (1 Bft) 96,00 %
30.09.2021 01:08 9,0 C 8,3 C 7,8 C 91 % 1024,1 hPa 0,0 l/m 0 min 0 min 0 W/m 3,2 km/h (1 Bft) 95,74 %
30.09.2021 01:10 9,0 C 8,3 C 7,8 C 90 % 1024,1 hPa 0,0 l/m 0 min 0 min 0 W/m 9,7 km/h (2 Bft) 95,92 %
30.09.2021 01:12 9,0 C 8,3 C 7,8 C 90 % 1024,1 hPa 0,0 l/m 0 min 0 min 0 W/m 6,4 km/h (2 Bft) 94,44 %
30.09.2021 01:14 9,0 C 8,3 C 7,8 C 91 % 1024,2 hPa 0,0 l/m 0 min 0 min 0 W/m 6,4 km/h (2 Bft) 96,15 %
30.09.2021 01:16 9,0 C 8,3 C 7,8 C 91 % 1024,1 hPa 0,0 l/m 0 min 0 min 0 W/m 9,7 km/h (2 Bft) 95,12 %
30.09.2021 01:18 9,0 C 8,3 C 7,8 C 91 % 1024,2 hPa 0,0 l/m 0 min 0 min 0 W/m 6,4 km/h (2 Bft) 95,74 %
30.09.2021 01:20 9,0 C 8,3 C 7,8 C 91 % 1024,3 hPa 0,0 l/m 0 min 0 min 0 W/m 12,9 km/h (3 Bft) 95,74 %
30.09.2021 01:22 9,0 C 8,3 C 7,8 C 91 % 1024,2 hPa 0,0 l/m 0 min 0 min 0 W/m 12,9 km/h (3 Bft) 95,74 %
30.09.2021 01:24 9,0 C 8,3 C 7,8 C 91 % 1024,3 hPa 0,0 l/m 0 min 0 min 0 W/m 19,3 km/h (3 Bft) 96,36 %
30.09.2021 01:26 9,0 C 8,3 C 7,8 C 91 % 1024,3 hPa 0,0 l/m 0 min 0 min 0 W/m 6,4 km/h (2 Bft) 93,62 %
30.09.2021 01:28 9,0 C 8,3 C 7,8 C 91 % 1024,3 hPa 0,0 l/m 0 min 0 min 0 W/m 12,9 km/h (3 Bft) 97,87 %
30.09.2021 01:30 8,9 C 8,3 C 7,8 C 91 % 1024,3 hPa 0,0 l/m 0 min 0 min 0 W/m 16,1 km/h (3 Bft) 98,00 %
30.09.2021 01:32 8,9 C 8,3 C 7,8 C 91 % 1024,3 hPa 0,0 l/m 0 min 0 min 0 W/m 6,4 km/h (2 Bft) 95,74 %
30.09.2021 01:34 8,9 C 8,3 C 7,8 C 91 % 1024,3 hPa 0,0 l/m 0 min 0 min 0 W/m 12,9 km/h (3 Bft) 100,00 %
30.09.2021 01:36 8,9 C 8,3 C 7,8 C 91 % 1024,3 hPa 0,0 l/m 0 min 0 min 0 W/m 6,4 km/h (2 Bft) 100,00 %
30.09.2021 01:38 8,9 C 8,3 C 7,8 C 91 % 1024,3 hPa 0,0 l/m 0 min 0 min 0 W/m 16,1 km/h (3 Bft) 97,87 %
30.09.2021 01:40 8,9 C 8,3 C 8,4 C 91 % 1024,3 hPa 0,0 l/m 0 min 0 min 0 W/m 19,3 km/h (3 Bft) 100,00 %
30.09.2021 01:42 8,9 C 8,3 C 8,4 C 91 % 1024,3 hPa 0,0 l/m 0 min 0 min 0 W/m 9,7 km/h (2 Bft) 100,00 %
30.09.2021 01:44 8,9 C 8,3 C 7,8 C 91 % 1024,4 hPa 0,0 l/m 0 min 0 min 0 W/m 19,3 km/h (3 Bft) 100,00 %
30.09.2021 01:46 9,0 C 8,3 C 8,4 C 91 % 1024,4 hPa 0,0 l/m 0 min 0 min 0 W/m 12,9 km/h (3 Bft) 100,00 %
30.09.2021 01:48 9,0 C 8,3 C 8,4 C 91 % 1024,4 hPa 0,0 l/m 0 min 0 min 0 W/m 12,9 km/h (3 Bft) 100,00 %
30.09.2021 01:50 9,0 C 8,3 C 8,4 C 91 % 1024,5 hPa 0,0 l/m 0 min 0 min 0 W/m 6,4 km/h (2 Bft) 100,00 %
30.09.2021 01:52 9,0 C 8,3 C 8,4 C 91 % 1024,4 hPa 0,0 l/m 0 min 0 min 0 W/m 6,4 km/h (2 Bft) 100,00 %
30.09.2021 01:54 9,0 C 8,3 C 8,4 C 91 % 1024,5 hPa 0,0 l/m 0 min 0 min 0 W/m 9,7 km/h (2 Bft) 100,00 %
30.09.2021 01:56 9,0 C 8,3 C 8,4 C 91 % 1024,6 hPa 0,0 l/m 0 min 0 min 0 W/m 9,7 km/h (2 Bft) 100,00 %
30.09.2021 01:58 9,0 C 8,3 C 8,4 C 91 % 1024,6 hPa 0,0 l/m 0 min 0 min 0 W/m 9,7 km/h (2 Bft) 100,00 %
30.09.2021 02:00 9,1 C 8,3 C 8,4 C 91 % 1024,7 hPa 0,0 l/m 0 min 0 min 0 W/m 6,4 km/h (2 Bft) 100,00 %
30.09.2021 02:02 9,1 C 8,3 C 8,4 C 91 % 1024,8 hPa 0,0 l/m 0 min 0 min 0 W/m 12,9 km/h (3 Bft) 100,00 %
30.09.2021 02:04 9,1 C 8,3 C 8,4 C 91 % 1024,7 hPa 0,0 l/m 0 min 0 min 0 W/m 9,7 km/h (2 Bft) 100,00 %
30.09.2021 02:06 9,1 C 8,3 C 8,4 C 91 % 1024,7 hPa 0,0 l/m 0 min 0 min 0 W/m 3,2 km/h (1 Bft) 100,00 %
30.09.2021 02:08 9,1 C 8,3 C 8,4 C 91 % 1024,7 hPa 0,0 l/m 0 min 0 min 0 W/m 9,7 km/h (2 Bft) 97,87 %
30.09.2021 02:10 9,1 C 8,3 C 8,4 C 91 % 1024,7 hPa 0,0 l/m 0 min 0 min 0 W/m 3,2 km/h (1 Bft) 100,00 %
30.09.2021 02:12 9,1 C 8,3 C 8,4 C 91 % 1024,8 hPa 0,0 l/m 0 min 0 min 0 W/m 9,7 km/h (2 Bft) 100,00 %
30.09.2021 02:14 9,0 C 8,3 C 8,4 C 91 % 1024,8 hPa 0,0 l/m 0 min 0 min 0 W/m 6,4 km/h (2 Bft) 97,87 %
30.09.2021 02:16 9,0 C 8,3 C 7,8 C 91 % 1024,8 hPa 0,0 l/m 0 min 0 min 0 W/m 3,2 km/h (1 Bft) 95,74 %
30.09.2021 02:18 9,0 C 8,3 C 7,8 C 91 % 1024,8 hPa 0,0 l/m 0 min 0 min 0 W/m 6,4 km/h (2 Bft) 97,87 %
30.09.2021 02:20 9,0 C 8,3 C 7,8 C 91 % 1024,8 hPa 0,0 l/m 0 min 0 min 0 W/m 12,9 km/h (3 Bft) 97,87 %
30.09.2021 02:22 9,0 C 8,3 C 7,8 C 91 % 1024,8 hPa 0,0 l/m 0 min 0 min 0 W/m 3,2 km/h (1 Bft) 97,83 %
30.09.2021 02:24 9,0 C 8,3 C 7,8 C 91 % 1024,8 hPa 0,0 l/m 0 min 0 min 0 W/m 3,2 km/h (1 Bft) 97,87 %
30.09.2021 02:26 8,9 C 7,8 C 7,8 C 91 % 1024,8 hPa 0,0 l/m 0 min 0 min 0 W/m 3,2 km/h (1 Bft) 97,87 %
30.09.2021 02:28 8,9 C 7,8 C 7,8 C 91 % 1024,9 hPa 0,0 l/m 0 min 0 min 0 W/m 3,2 km/h (1 Bft) 97,87 %
30.09.2021 02:30 8,9 C 7,8 C 7,8 C 91 % 1024,9 hPa 0,0 l/m 0 min 0 min 0 W/m 6,4 km/h (2 Bft) 95,74 %
30.09.2021 02:32 8,8 C 7,8 C 7,8 C 91 % 1024,8 hPa 0,0 l/m 0 min 0 min 0 W/m 12,9 km/h (3 Bft) 95,74 %
30.09.2021 02:34 8,8 C 8,3 C 7,8 C 91 % 1024,8 hPa 0,0 l/m 0 min 0 min 0 W/m 12,9 km/h (3 Bft) 95,65 %
30.09.2021 02:36 8,8 C 8,3 C 7,8 C 91 % 1024,8 hPa 0,0 l/m 0 min 0 min 0 W/m 6,4 km/h (2 Bft) 97,87 %
30.09.2021 02:38 8,8 C 8,3 C 7,8 C 91 % 1024,8 hPa 0,0 l/m 0 min 0 min 0 W/m 6,4 km/h (2 Bft) 95,74 %
30.09.2021 02:40 8,8 C 8,3 C 7,8 C 91 % 1024,8 hPa 0,0 l/m 0 min 0 min 0 W/m 6,4 km/h (2 Bft) 97,87 %
30.09.2021 02:42 8,8 C 8,3 C 7,8 C 91 % 1024,9 hPa 0,0 l/m 0 min 0 min 0 W/m 12,9 km/h (3 Bft) 95,74 %
30.09.2021 02:44 8,8 C 8,3 C 7,8 C 91 % 1024,8 hPa 0,0 l/m 0 min 0 min 0 W/m 6,4 km/h (2 Bft) 97,87 %
30.09.2021 02:46 8,8 C 8,3 C 7,8 C 91 % 1024,9 hPa 0,0 l/m 0 min 0 min 0 W/m 6,4 km/h (2 Bft) 97,83 %
30.09.2021 02:48 8,8 C 8,3 C 7,8 C 91 % 1025,0 hPa 0,0 l/m 0 min 0 min 0 W/m 3,2 km/h (1 Bft) 95,74 %
30.09.2021 02:50 8,8 C 7,8 C 7,8 C 91 % 1025,0 hPa 0,0 l/m 0 min 0 min 0 W/m 6,4 km/h (2 Bft) 95,74 %
30.09.2021 02:52 8,8 C 7,8 C 7,8 C 91 % 1025,0 hPa 0,0 l/m 0 min 0 min 0 W/m 3,2 km/h (1 Bft) 91,49 %
30.09.2021 02:54 8,8 C 7,8 C 7,8 C 91 % 1025,0 hPa 0,0 l/m 0 min 0 min 0 W/m 3,2 km/h (1 Bft) 95,74 %
30.09.2021 02:56 8,8 C 7,8 C 7,8 C 91 % 1025,0 hPa 0,0 l/m 0 min 0 min 0 W/m 6,4 km/h (2 Bft) 95,65 %
30.09.2021 02:58 8,8 C 7,8 C 7,8 C 91 % 1025,0 hPa 0,0 l/m 0 min 0 min 0 W/m 16,1 km/h (3 Bft) 95,74 %
30.09.2021 03:00 8,8 C 8,3 C 7,8 C 91 % 1025,0 hPa 0,0 l/m 0 min 0 min 0 W/m 3,2 km/h (1 Bft) 95,74 %
30.09.2021 03:02 8,8 C 7,8 C 7,8 C 91 % 1025,0 hPa 0,0 l/m 0 min 0 min 0 W/m 6,4 km/h (2 Bft) 95,74 %
30.09.2021 03:04 8,7 C 7,8 C 7,8 C 91 % 1025,0 hPa 0,0 l/m 0 min 0 min 0 W/m 3,2 km/h (1 Bft) 93,62 %
30.09.2021 03:06 8,7 C 7,8 C 7,8 C 91 % 1024,9 hPa 0,0 l/m 0 min 0 min 0 W/m 6,4 km/h (2 Bft) 95,74 %
30.09.2021 03:08 8,7 C 7,8 C 7,8 C 91 % 1024,9 hPa 0,0 l/m 0 min 0 min 0 W/m 6,4 km/h (2 Bft) 93,48 %
30.09.2021 03:10 8,6 C 7,8 C 7,8 C 91 % 1024,9 hPa 0,0 l/m 0 min 0 min 0 W/m 3,2 km/h (1 Bft) 97,87 %
30.09.2021 03:12 8,6 C 7,8 C 7,8 C 91 % 1024,9 hPa 0,0 l/m 0 min 0 min 0 W/m 6,4 km/h (2 Bft) 91,49 %
30.09.2021 03:14 8,6 C 7,8 C 7,8 C 91 % 1025,0 hPa 0,0 l/m 0 min 0 min 0 W/m 6,4 km/h (2 Bft) 93,62 %
30.09.2021 03:16 8,6 C 7,8 C 7,8 C 91 % 1025,0 hPa 0,0 l/m 0 min 0 min 0 W/m 12,9 km/h (3 Bft) 97,87 %
30.09.2021 03:18 8,6 C 7,8 C 7,8 C 91 % 1025,0 hPa 0,0 l/m 0 min 0 min 0 W/m 3,2 km/h (1 Bft) 97,87 %
30.09.2021 03:20 8,6 C 7,8 C 7,8 C 91 % 1025,0 hPa 0,0 l/m 0 min 0 min 0 W/m 6,4 km/h (2 Bft) 95,74 %
30.09.2021 03:22 8,6 C 7,8 C 7,8 C 91 % 1025,0 hPa 0,0 l/m 0 min 0 min 0 W/m 6,4 km/h (2 Bft) 97,83 %
30.09.2021 03:24 8,6 C 7,8 C 7,8 C 91 % 1025,1 hPa 0,0 l/m 0 min 0 min 0 W/m 12,9 km/h (3 Bft) 95,74 %
30.09.2021 03:26 8,6 C 7,8 C 7,8 C 91 % 1025,1 hPa 0,0 l/m 0 min 0 min 0 W/m 9,7 km/h (2 Bft) 97,87 %
30.09.2021 03:28 8,6 C 7,8 C 7,8 C 91 % 1025,1 hPa 0,0 l/m 0 min 0 min 0 W/m 3,2 km/h (1 Bft) 97,87 %
30.09.2021 03:30 8,6 C 7,8 C 7,8 C 91 % 1025,1 hPa 0,0 l/m 0 min 0 min 0 W/m 6,4 km/h (2 Bft) 97,87 %
30.09.2021 03:32 8,6 C 7,8 C 7,8 C 91 % 1025,0 hPa 0,0 l/m 0 min 0 min 0 W/m 9,7 km/h (2 Bft) 95,65 %
30.09.2021 03:34 8,6 C 7,8 C 7,8 C 91 % 1025,1 hPa 0,0 l/m 0 min 0 min 0 W/m 12,9 km/h (3 Bft) 97,87 %
30.09.2021 03:36 8,6 C 7,8 C 7,8 C 91 % 1025,1 hPa 0,0 l/m 0 min 0 min 0 W/m 3,2 km/h (1 Bft) 95,74 %
30.09.2021 03:38 8,6 C 7,8 C 7,8 C 91 % 1025,1 hPa 0,0 l/m 0 min 0 min 0 W/m 6,4 km/h (2 Bft) 97,87 %
30.09.2021 03:40 8,6 C 7,8 C 7,8 C 91 % 1025,0 hPa 0,0 l/m 0 min 0 min 0 W/m 6,4 km/h (2 Bft) 97,87 %
30.09.2021 03:42 8,6 C 7,8 C 7,8 C 91 % 1025,0 hPa 0,0 l/m 0 min 0 min 0 W/m 6,4 km/h (2 Bft) 95,74 %
30.09.2021 03:44 8,6 C 7,8 C 7,8 C 91 % 1025,1 hPa 0,0 l/m 0 min 0 min 0 W/m 12,9 km/h (3 Bft) 97,83 %
30.09.2021 03:46 8,6 C 7,8 C 7,8 C 91 % 1025,1 hPa 0,0 l/m 0 min 0 min 0 W/m 6,4 km/h (2 Bft) 97,87 %
30.09.2021 03:48 8,6 C 7,8 C 7,8 C 91 % 1025,1 hPa 0,0 l/m 0 min 0 min 0 W/m 6,4 km/h (2 Bft) 95,74 %
30.09.2021 03:50 8,5 C 7,8 C 7,8 C 91 % 1025,1 hPa 0,0 l/m 0 min 0 min 0 W/m 12,9 km/h (3 Bft) 97,87 %
30.09.2021 03:52 8,5 C 7,8 C 7,8 C 91 % 1025,1 hPa 0,0 l/m 0 min 0 min 0 W/m 6,4 km/h (2 Bft) 97,87 %
30.09.2021 03:54 8,5 C 7,8 C 7,8 C 91 % 1025,1 hPa 0,0 l/m 0 min 0 min 0 W/m 6,4 km/h (2 Bft) 100,00 %
30.09.2021 03:56 8,5 C 7,8 C 7,8 C 91 % 1025,2 hPa 0,0 l/m 0 min 0 min 0 W/m 6,4 km/h (2 Bft) 97,83 %
30.09.2021 03:58 8,5 C 7,8 C 7,8 C 91 % 1025,2 hPa 0,0 l/m 0 min 0 min 0 W/m 6,4 km/h (2 Bft) 100,00 %
30.09.2021 04:00 8,6 C 7,8 C 7,8 C 91 % 1025,2 hPa 0,0 l/m 0 min 0 min 0 W/m 6,4 km/h (2 Bft) 100,00 %
30.09.2021 04:02 8,5 C 7,8 C 7,8 C 91 % 1025,2 hPa 0,0 l/m 0 min 0 min 0 W/m 3,2 km/h (1 Bft) 100,00 %
30.09.2021 04:04 8,5 C 7,8 C 7,8 C 91 % 1025,2 hPa 0,0 l/m 0 min 0 min 0 W/m 6,4 km/h (2 Bft) 97,87 %
30.09.2021 04:06 8,5 C 7,8 C 7,8 C 91 % 1025,2 hPa 0,0 l/m 0 min 0 min 0 W/m 6,4 km/h (2 Bft) 100,00 %
30.09.2021 04:08 8,5 C 7,8 C 7,8 C 91 % 1025,3 hPa 0,0 l/m 0 min 0 min 0 W/m 6,4 km/h (2 Bft) 100,00 %
30.09.2021 04:10 8,5 C 7,8 C 7,8 C 91 % 1025,3 hPa 0,0 l/m 0 min 0 min 0 W/m 3,2 km/h (1 Bft) 100,00 %
30.09.2021 04:12 8,5 C 7,8 C 7,8 C 91 % 1025,2 hPa 0,0 l/m 0 min 0 min 0 W/m 6,4 km/h (2 Bft) 100,00 %
30.09.2021 04:14 8,5 C 7,8 C 7,8 C 91 % 1025,2 hPa 0,0 l/m 0 min 0 min 0 W/m 3,2 km/h (1 Bft) 100,00 %
30.09.2021 04:16 8,5 C 7,8 C 7,8 C 91 % 1025,2 hPa 0,0 l/m 0 min 0 min 0 W/m 6,4 km/h (2 Bft) 100,00 %
30.09.2021 04:18 8,5 C 7,8 C 7,8 C 91 % 1025,3 hPa 0,0 l/m 0 min 0 min 0 W/m 6,4 km/h (2 Bft) 100,00 %
30.09.2021 04:20 8,5 C 7,8 C 7,8 C 91 % 1025,3 hPa 0,0 l/m 0 min 0 min 0 W/m 3,2 km/h (1 Bft) 100,00 %
30.09.2021 04:22 8,5 C 7,8 C 7,8 C 91 % 1025,3 hPa 0,0 l/m 0 min 0 min 0 W/m 6,4 km/h (2 Bft) 100,00 %
30.09.2021 04:24 8,5 C 7,8 C 7,8 C 91 % 1025,2 hPa 0,0 l/m 0 min 0 min 0 W/m 9,7 km/h (2 Bft) 100,00 %
30.09.2021 04:26 8,5 C 7,8 C 7,8 C 91 % 1025,2 hPa 0,0 l/m 0 min 0 min 0 W/m 6,4 km/h (2 Bft) 100,00 %
30.09.2021 04:28 8,5 C 7,8 C 7,8 C 91 % 1025,2 hPa 0,0 l/m 0 min 0 min 0 W/m 9,7 km/h (2 Bft) 100,00 %
30.09.2021 04:30 8,5 C 7,8 C 7,8 C 91 % 1025,2 hPa 0,0 l/m 0 min 0 min 0 W/m 6,4 km/h (2 Bft) 100,00 %
30.09.2021 04:32 8,4 C 7,8 C 7,8 C 91 % 1025,2 hPa 0,0 l/m 0 min 0 min 0 W/m 3,2 km/h (1 Bft) 100,00 %
30.09.2021 04:34 8,4 C 7,8 C 7,8 C 91 % 1025,2 hPa 0,0 l/m 0 min 0 min 0 W/m 6,4 km/h (2 Bft) 97,87 %
30.09.2021 04:36 8,4 C 7,8 C 7,8 C 91 % 1025,2 hPa 0,0 l/m 0 min 0 min 0 W/m 6,4 km/h (2 Bft) 97,87 %
30.09.2021 04:38 8,4 C 7,8 C 7,8 C 91 % 1025,2 hPa 0,0 l/m 0 min 0 min 0 W/m 6,4 km/h (2 Bft) 95,74 %
30.09.2021 04:40 8,4 C 7,8 C 7,8 C 91 % 1025,2 hPa 0,0 l/m 0 min 0 min 0 W/m 12,9 km/h (3 Bft) 97,87 %
30.09.2021 04:42 8,4 C 7,8 C 7,8 C 91 % 1025,3 hPa 0,0 l/m 0 min 0 min 0 W/m 6,4 km/h (2 Bft) 97,83 %
30.09.2021 04:44 8,4 C 7,8 C 7,3 C 91 % 1025,2 hPa 0,0 l/m 0 min 0 min 0 W/m 12,9 km/h (3 Bft) 95,74 %
30.09.2021 04:46 8,4 C 7,8 C 7,3 C 91 % 1025,2 hPa 0,0 l/m 0 min 0 min 0 W/m 16,1 km/h (3 Bft) 97,87 %
30.09.2021 04:48 8,4 C 7,8 C 7,8 C 91 % 1025,3 hPa 0,0 l/m 0 min 0 min 0 W/m 6,4 km/h (2 Bft) 97,87 %
30.09.2021 04:50 8,4 C 7,8 C 7,8 C 91 % 1025,3 hPa 0,0 l/m 0 min 0 min 0 W/m 6,4 km/h (2 Bft) 97,87 %
30.09.2021 04:52 8,4 C 7,8 C 7,8 C 91 % 1025,4 hPa 0,0 l/m 0 min 0 min 0 W/m 9,7 km/h (2 Bft) 97,87 %
30.09.2021 04:54 8,4 C 7,8 C 7,8 C 91 % 1025,4 hPa 0,0 l/m 0 min 0 min 0 W/m 6,4 km/h (2 Bft) 97,83 %
30.09.2021 04:56 8,4 C 7,8 C 7,3 C 91 % 1025,3 hPa 0,0 l/m 0 min 0 min 0 W/m 12,9 km/h (3 Bft) 97,87 %
30.09.2021 04:58 8,4 C 7,8 C 7,3 C 91 % 1025,4 hPa 0,0 l/m 0 min 0 min 0 W/m 6,4 km/h (2 Bft) 97,87 %
30.09.2021 05:00 8,3 C 7,8 C 7,8 C 91 % 1025,4 hPa 0,0 l/m 0 min 0 min 0 W/m 6,4 km/h (2 Bft) 100,00 %
30.09.2021 05:02 8,3 C 7,8 C 7,8 C 91 % 1025,4 hPa 0,0 l/m 0 min 0 min 0 W/m 9,7 km/h (2 Bft) 97,92 %
30.09.2021 05:04 8,3 C 7,8 C 7,8 C 91 % 1025,4 hPa 0,0 l/m 0 min 0 min 0 W/m 9,7 km/h (2 Bft) 100,00 %
30.09.2021 05:06 8,3 C 7,8 C 7,8 C 91 % 1025,4 hPa 0,0 l/m 0 min 0 min 0 W/m 12,9 km/h (3 Bft) 100,00 %
30.09.2021 05:08 8,3 C 7,8 C 7,8 C 91 % 1025,4 hPa 0,0 l/m 0 min 0 min 0 W/m 6,4 km/h (2 Bft) 100,00 %
30.09.2021 05:10 8,3 C 7,8 C 7,8 C 91 % 1025,4 hPa 0,0 l/m 0 min 0 min 0 W/m 16,1 km/h (3 Bft) 100,00 %
30.09.2021 05:12 8,3 C 7,8 C 7,3 C 91 % 1025,4 hPa 0,0 l/m 0 min 0 min 0 W/m 6,4 km/h (2 Bft) 100,00 %
30.09.2021 05:14 8,3 C 7,8 C 7,3 C 91 % 1025,5 hPa 0,0 l/m 0 min 0 min 0 W/m 6,4 km/h (2 Bft) 100,00 %
30.09.2021 05:16 8,3 C 7,8 C 7,3 C 91 % 1025,5 hPa 0,0 l/m 0 min 0 min 0 W/m 12,9 km/h (3 Bft) 100,00 %
30.09.2021 05:18 8,3 C 7,8 C 7,3 C 91 % 1025,5 hPa 0,0 l/m 0 min 0 min 0 W/m 6,4 km/h (2 Bft) 100,00 %
30.09.2021 05:20 8,3 C 7,8 C 7,3 C 91 % 1025,5 hPa 0,0 l/m 0 min 0 min 0 W/m 12,9 km/h (3 Bft) 100,00 %
30.09.2021 05:22 8,3 C 7,8 C 7,3 C 91 % 1025,5 hPa 0,0 l/m 0 min 0 min 0 W/m 12,9 km/h (3 Bft) 95,74 %
30.09.2021 05:24 8,3 C 7,8 C 7,3 C 91 % 1025,5 hPa 0,0 l/m 0 min 0 min 0 W/m 9,7 km/h (2 Bft) 100,00 %
30.09.2021 05:26 8,3 C 7,8 C 7,3 C 91 % 1025,6 hPa 0,0 l/m 0 min 0 min 0 W/m 12,9 km/h (3 Bft) 100,00 %
30.09.2021 05:28 8,3 C 7,8 C 7,3 C 91 % 1025,6 hPa 0,0 l/m 0 min 0 min 0 W/m 12,9 km/h (3 Bft) 100,00 %
30.09.2021 05:30 8,3 C 7,8 C 7,3 C 91 % 1025,6 hPa 0,0 l/m 0 min 0 min 0 W/m 9,7 km/h (2 Bft) 97,83 %
30.09.2021 05:32 8,2 C 7,8 C 7,3 C 91 % 1025,6 hPa 0,0 l/m 0 min 0 min 0 W/m 12,9 km/h (3 Bft) 100,00 %
30.09.2021 05:34 8,2 C 7,2 C 7,3 C 91 % 1025,6 hPa 0,0 l/m 0 min 0 min 0 W/m 12,9 km/h (3 Bft) 97,87 %
30.09.2021 05:36 8,2 C 7,2 C 7,3 C 91 % 1025,7 hPa 0,0 l/m 0 min 0 min 0 W/m 12,9 km/h (3 Bft) 95,74 %
30.09.2021 05:38 8,2 C 7,2 C 7,3 C 91 % 1025,7 hPa 0,0 l/m 0 min 0 min 0 W/m 12,9 km/h (3 Bft) 95,74 %
30.09.2021 05:40 8,2 C 7,2 C 7,3 C 91 % 1025,7 hPa 0,0 l/m 0 min 0 min 0 W/m 12,9 km/h (3 Bft) 95,74 %
30.09.2021 05:42 8,2 C 7,2 C 7,3 C 91 % 1025,7 hPa 0,0 l/m 0 min 0 min 0 W/m 12,9 km/h (3 Bft) 97,83 %
30.09.2021 05:44 8,2 C 7,2 C 7,3 C 91 % 1025,8 hPa 0,0 l/m 0 min 0 min 0 W/m 12,9 km/h (3 Bft) 93,62 %
30.09.2021 05:46 8,2 C 7,8 C 7,3 C 91 % 1025,7 hPa 0,0 l/m 0 min 0 min 0 W/m 19,3 km/h (3 Bft) 95,74 %
30.09.2021 05:48 8,2 C 7,8 C 7,3 C 91 % 1025,7 hPa 0,0 l/m 0 min 0 min 0 W/m 19,3 km/h (3 Bft) 95,74 %
30.09.2021 05:50 8,2 C 7,8 C 7,3 C 91 % 1025,6 hPa 0,0 l/m 0 min 0 min 0 W/m 12,9 km/h (3 Bft) 95,74 %
30.09.2021 05:52 8,2 C 7,8 C 7,3 C 91 % 1025,6 hPa 0,0 l/m 0 min 0 min 0 W/m 9,7 km/h (2 Bft) 95,74 %
30.09.2021 05:54 8,1 C 7,2 C 7,3 C 91 % 1025,6 hPa 0,0 l/m 0 min 0 min 0 W/m 12,9 km/h (3 Bft) 95,65 %
30.09.2021 05:56 8,1 C 7,2 C 7,3 C 90 % 1025,6 hPa 0,0 l/m 0 min 0 min 0 W/m 19,3 km/h (3 Bft) 93,62 %
30.09.2021 05:58 8,1 C 7,2 C 7,3 C 90 % 1025,6 hPa 0,0 l/m 0 min 0 min 0 W/m 19,3 km/h (3 Bft) 95,74 %
30.09.2021 06:00 8,1 C 7,8 C 7,3 C 90 % 1025,7 hPa 0,0 l/m 0 min 0 min 0 W/m 16,1 km/h (3 Bft) 93,62 %
30.09.2021 06:02 8,1 C 7,8 C 7,3 C 90 % 1025,7 hPa 0,0 l/m 0 min 0 min 0 W/m 16,1 km/h (3 Bft) 93,75 %
30.09.2021 06:04 8,1 C 7,2 C 7,3 C 90 % 1025,7 hPa 0,0 l/m 0 min 0 min 0 W/m 19,3 km/h (3 Bft) 95,65 %
30.09.2021 06:08 8,1 C 7,2 C 7,3 C 90 % 1025,7 hPa 0,0 l/m 0 min 0 min 0 W/m 16,1 km/h (3 Bft) 93,90 %
30.09.2021 06:10 8,1 C 7,2 C 7,3 C 90 % 1025,7 hPa 0,0 l/m 0 min 0 min 0 W/m 12,9 km/h (3 Bft) 95,74 %
30.09.2021 06:12 8,1 C 7,2 C 7,3 C 90 % 1025,7 hPa 0,0 l/m 0 min 0 min 0 W/m 22,5 km/h (4 Bft) 93,62 %
30.09.2021 06:14 8,1 C 7,2 C 7,3 C 90 % 1025,7 hPa 0,0 l/m 0 min 0 min 0 W/m 25,7 km/h (4 Bft) 95,74 %
30.09.2021 06:16 8,1 C 7,2 C 7,3 C 90 % 1025,8 hPa 0,0 l/m 0 min 0 min 0 W/m 19,3 km/h (3 Bft) 95,74 %
30.09.2021 06:18 8,1 C 7,2 C 7,3 C 90 % 1025,7 hPa 0,0 l/m 0 min 0 min 0 W/m 19,3 km/h (3 Bft) 93,62 %
30.09.2021 06:20 8,1 C 7,2 C 7,3 C 90 % 1025,8 hPa 0,0 l/m 0 min 0 min 0 W/m 16,1 km/h (3 Bft) 93,48 %
30.09.2021 06:22 8,1 C 7,2 C 7,3 C 90 % 1025,8 hPa 0,0 l/m 0 min 0 min 0 W/m 16,1 km/h (3 Bft) 95,74 %
30.09.2021 06:24 8,1 C 7,2 C 7,3 C 90 % 1025,8 hPa 0,0 l/m 0 min 0 min 0 W/m 16,1 km/h (3 Bft) 93,62 %
30.09.2021 06:26 8,1 C 7,2 C 7,3 C 90 % 1025,8 hPa 0,0 l/m 0 min 0 min 0 W/m 12,9 km/h (3 Bft) 95,74 %
30.09.2021 06:28 8,1 C 7,2 C 7,3 C 90 % 1025,8 hPa 0,0 l/m 0 min 0 min 0 W/m 19,3 km/h (3 Bft) 97,87 %
30.09.2021 06:30 8,0 C 7,2 C 7,3 C 90 % 1025,8 hPa 0,0 l/m 0 min 0 min 0 W/m 16,1 km/h (3 Bft) 97,87 %
30.09.2021 06:32 8,0 C 7,2 C 7,3 C 90 % 1025,9 hPa 0,0 l/m 0 min 0 min 0 W/m 12,9 km/h (3 Bft) 95,65 %
30.09.2021 06:34 8,0 C 7,2 C 7,3 C 90 % 1025,8 hPa 0,0 l/m 0 min 0 min 0 W/m 16,1 km/h (3 Bft) 95,74 %
30.09.2021 06:36 8,0 C 7,2 C 7,3 C 90 % 1025,9 hPa 0,0 l/m 0 min 0 min 0 W/m 16,1 km/h (3 Bft) 97,87 %
30.09.2021 06:38 8,0 C 7,2 C 7,3 C 90 % 1025,9 hPa 0,0 l/m 0 min 0 min 0 W/m 6,4 km/h (2 Bft) 97,87 %
30.09.2021 06:40 8,0 C 7,2 C 7,3 C 90 % 1026,0 hPa 0,0 l/m 0 min 0 min 0 W/m 16,1 km/h (3 Bft) 95,74 %
30.09.2021 06:42 8,0 C 7,2 C 7,3 C 90 % 1026,0 hPa 0,0 l/m 0 min 0 min 0 W/m 12,9 km/h (3 Bft) 95,65 %
30.09.2021 06:44 8,0 C 7,2 C 7,3 C 90 % 1026,0 hPa 0,0 l/m 0 min 0 min 0 W/m 12,9 km/h (3 Bft) 95,74 %
30.09.2021 06:46 8,0 C 7,2 C 7,3 C 90 % 1026,1 hPa 0,0 l/m 0 min 0 min 0 W/m 19,3 km/h (3 Bft) 97,87 %
30.09.2021 06:48 8,0 C 7,2 C 7,3 C 90 % 1026,0 hPa 0,0 l/m 0 min 0 min 0 W/m 12,9 km/h (3 Bft) 97,87 %
30.09.2021 06:50 8,0 C 7,2 C 7,3 C 90 % 1026,0 hPa 0,0 l/m 0 min 0 min 0 W/m 19,3 km/h (3 Bft) 95,74 %
30.09.2021 06:52 8,0 C 7,2 C 7,3 C 90 % 1026,0 hPa 0,0 l/m 0 min 0 min 0 W/m 12,9 km/h (3 Bft) 97,87 %
30.09.2021 06:54 8,0 C 7,2 C 7,3 C 90 % 1026,1 hPa 0,0 l/m 0 min 0 min 0 W/m 12,9 km/h (3 Bft) 100,00 %
30.09.2021 06:56 8,0 C 7,2 C 7,3 C 90 % 1026,1 hPa 0,0 l/m 0 min 0 min 0 W/m 16,1 km/h (3 Bft) 100,00 %
30.09.2021 06:58 8,0 C 7,2 C 7,3 C 90 % 1026,0 hPa 0,0 l/m 0 min 0 min 0 W/m 16,1 km/h (3 Bft) 100,00 %
30.09.2021 07:00 7,9 C 7,2 C 7,3 C 90 % 1026,0 hPa 0,0 l/m 0 min 0 min 0 W/m 9,7 km/h (2 Bft) 100,00 %
30.09.2021 07:02 7,9 C 7,2 C 7,3 C 90 % 1026,0 hPa 0,0 l/m 0 min 0 min 0 W/m 9,7 km/h (2 Bft) 100,00 %
30.09.2021 07:04 7,9 C 7,2 C 7,3 C 90 % 1026,0 hPa 0,0 l/m 0 min 0 min 0 W/m 9,7 km/h (2 Bft) 100,00 %
30.09.2021 07:06 7,9 C 7,2 C 7,3 C 90 % 1026,0 hPa 0,0 l/m 0 min 0 min 0 W/m 16,1 km/h (3 Bft) 100,00 %
30.09.2021 07:08 7,9 C 7,2 C 7,3 C 91 % 1026,1 hPa 0,0 l/m 0 min 0 min 0 W/m 12,9 km/h (3 Bft) 100,00 %
30.09.2021 07:10 7,9 C 7,2 C 7,3 C 91 % 1026,1 hPa 0,0 l/m 0 min 0 min 0 W/m 6,4 km/h (2 Bft) 100,00 %
30.09.2021 07:12 7,9 C 7,2 C 7,3 C 90 % 1026,2 hPa 0,0 l/m 0 min 0 min 0 W/m 12,9 km/h (3 Bft) 100,00 %
30.09.2021 07:14 7,9 C 7,2 C 7,3 C 90 % 1026,2 hPa 0,0 l/m 0 min 0 min 0 W/m 6,4 km/h (2 Bft) 100,00 %
30.09.2021 07:16 7,9 C 7,2 C 7,3 C 90 % 1026,2 hPa 0,0 l/m 0 min 0 min 0 W/m 12,9 km/h (3 Bft) 100,00 %
30.09.2021 07:18 7,9 C 7,2 C 7,3 C 90 % 1026,2 hPa 0,0 l/m 0 min 0 min 0 W/m 6,4 km/h (2 Bft) 100,00 %
30.09.2021 07:20 7,9 C 7,2 C 7,3 C 90 % 1026,2 hPa 0,0 l/m 0 min 0 min 0 W/m 9,7 km/h (2 Bft) 100,00 %
30.09.2021 07:22 7,9 C 7,2 C 7,3 C 91 % 1026,2 hPa 0,0 l/m 0 min 0 min 0 W/m 9,7 km/h (2 Bft) 100,00 %
30.09.2021 07:24 7,8 C 7,2 C 7,3 C 91 % 1026,2 hPa 0,0 l/m 0 min 0 min 0 W/m 6,4 km/h (2 Bft) 100,00 %
30.09.2021 07:26 7,8 C 7,2 C 7,3 C 91 % 1026,2 hPa 0,0 l/m 0 min 0 min 0 W/m 12,9 km/h (3 Bft) 100,00 %
30.09.2021 07:28 7,8 C 7,2 C 7,3 C 91 % 1026,2 hPa 0,0 l/m 0 min 0 min 0 W/m 12,9 km/h (3 Bft) 100,00 %
30.09.2021 07:30 7,8 C 7,2 C 7,3 C 91 % 1026,2 hPa 0,0 l/m 0 min 0 min 0 W/m 6,4 km/h (2 Bft) 100,00 %
30.09.2021 07:32 7,8 C 7,2 C 7,3 C 91 % 1026,2 hPa 0,0 l/m 0 min 0 min 0 W/m 9,7 km/h (2 Bft) 100,00 %
30.09.2021 07:34 7,8 C 7,2 C 7,3 C 91 % 1026,2 hPa 0,0 l/m 0 min 0 min 0 W/m 9,7 km/h (2 Bft) 100,00 %
30.09.2021 07:36 7,8 C 7,2 C 7,3 C 91 % 1026,3 hPa 0,0 l/m 0 min 0 min 2 W/m 16,1 km/h (3 Bft) 100,00 %
30.09.2021 07:38 7,8 C 7,2 C 7,3 C 91 % 1026,3 hPa 0,0 l/m 0 min 0 min 5 W/m 16,1 km/h (3 Bft) 100,00 %
30.09.2021 07:40 7,8 C 7,2 C 7,3 C 91 % 1026,3 hPa 0,0 l/m 0 min 0 min 5 W/m 12,9 km/h (3 Bft) 100,00 %
30.09.2021 07:42 7,8 C 7,2 C 7,3 C 91 % 1026,3 hPa 0,0 l/m 0 min 0 min 7 W/m 16,1 km/h (3 Bft) 100,00 %
30.09.2021 07:44 7,8 C 7,2 C 7,3 C 91 % 1026,3 hPa 0,0 l/m 0 min 0 min 7 W/m 12,9 km/h (3 Bft) 100,00 %
30.09.2021 07:46 7,8 C 7,2 C 7,3 C 91 % 1026,3 hPa 0,0 l/m 0 min 0 min 8 W/m 19,3 km/h (3 Bft) 100,00 %
30.09.2021 07:48 7,8 C 7,2 C 7,3 C 91 % 1026,4 hPa 0,0 l/m 0 min 0 min 9 W/m 16,1 km/h (3 Bft) 100,00 %
30.09.2021 07:50 7,8 C 7,2 C 7,3 C 91 % 1026,4 hPa 0,0 l/m 0 min 0 min 9 W/m 19,3 km/h (3 Bft) 95,65 %
30.09.2021 07:52 7,8 C 7,2 C 7,3 C 91 % 1026,3 hPa 0,0 l/m 0 min 0 min 11 W/m 19,3 km/h (3 Bft) 82,98 %
30.09.2021 07:54 7,8 C 7,2 C 7,3 C 91 % 1026,3 hPa 0,0 l/m 0 min 0 min 11 W/m 6,4 km/h (2 Bft) 97,87 %
30.09.2021 07:56 7,8 C 7,2 C 7,3 C 91 % 1026,4 hPa 0,0 l/m 0 min 0 min 12 W/m 12,9 km/h (3 Bft) 100,00 %
30.09.2021 07:58 7,8 C 7,2 C 7,3 C 91 % 1026,3 hPa 0,0 l/m 0 min 0 min 12 W/m 12,9 km/h (3 Bft) 97,87 %
30.09.2021 08:00 7,8 C 7,2 C 7,3 C 91 % 1026,3 hPa 0,0 l/m 0 min 0 min 14 W/m 12,9 km/h (3 Bft) 100,00 %
30.09.2021 08:02 7,9 C 7,2 C 7,3 C 91 % 1026,4 hPa 0,0 l/m 0 min 0 min 14 W/m 19,3 km/h (3 Bft) 97,87 %
30.09.2021 08:04 7,9 C 7,2 C 7,3 C 91 % 1026,3 hPa 0,0 l/m 0 min 0 min 16 W/m 16,1 km/h (3 Bft) 100,00 %
30.09.2021 08:06 7,9 C 7,2 C 7,3 C 91 % 1026,3 hPa 0,0 l/m 0 min 0 min 18 W/m 16,1 km/h (3 Bft) 95,74 %
30.09.2021 08:08 7,9 C 7,2 C 7,3 C 91 % 1026,4 hPa 0,0 l/m 0 min 0 min 19 W/m 12,9 km/h (3 Bft) 93,62 %
30.09.2021 08:10 7,9 C 7,2 C 7,3 C 91 % 1026,3 hPa 0,0 l/m 0 min 0 min 19 W/m 19,3 km/h (3 Bft) 95,74 %
30.09.2021 08:12 7,9 C 7,2 C 7,3 C 91 % 1026,3 hPa 0,0 l/m 0 min 0 min 21 W/m 19,3 km/h (3 Bft) 95,65 %
30.09.2021 08:14 7,9 C 7,2 C 7,3 C 91 % 1026,3 hPa 0,0 l/m 0 min 0 min 22 W/m 16,1 km/h (3 Bft) 95,74 %
30.09.2021 08:16 7,9 C 7,8 C 7,3 C 91 % 1026,3 hPa 0,0 l/m 0 min 0 min 24 W/m 12,9 km/h (3 Bft) 97,14 %
30.09.2021 08:18 8,0 C 7,8 C 7,3 C 91 % 1026,3 hPa 0,0 l/m 0 min 0 min 26 W/m 12,9 km/h (3 Bft) 93,62 %
30.09.2021 08:20 8,0 C 7,8 C 7,3 C 91 % 1026,4 hPa 0,0 l/m 0 min 0 min 27 W/m 22,5 km/h (4 Bft) 95,74 %
30.09.2021 08:22 8,0 C 7,8 C 7,3 C 91 % 1026,3 hPa 0,0 l/m 0 min 0 min 29 W/m 16,1 km/h (3 Bft) 95,74 %
30.09.2021 08:24 8,0 C 7,8 C 7,3 C 91 % 1026,3 hPa 0,0 l/m 0 min 0 min 30 W/m 19,3 km/h (3 Bft) 93,62 %
30.09.2021 08:26 8,1 C 7,8 C 7,8 C 91 % 1026,3 hPa 0,0 l/m 0 min 0 min 31 W/m 19,3 km/h (3 Bft) 95,74 %
30.09.2021 08:28 8,1 C 7,8 C 7,8 C 91 % 1026,3 hPa 0,0 l/m 0 min 0 min 32 W/m 19,3 km/h (3 Bft) 95,65 %
30.09.2021 08:30 8,2 C 7,8 C 7,8 C 91 % 1026,4 hPa 0,0 l/m 0 min 0 min 30 W/m 22,5 km/h (4 Bft) 93,62 %
30.09.2021 08:32 8,3 C 7,8 C 7,8 C 91 % 1026,4 hPa 0,0 l/m 0 min 0 min 32 W/m 19,3 km/h (3 Bft) 96,36 %
30.09.2021 08:34 8,3 C 7,8 C 7,8 C 91 % 1026,4 hPa 0,0 l/m 0 min 0 min 32 W/m 19,3 km/h (3 Bft) 95,74 %
30.09.2021 08:36 8,3 C 7,8 C 7,8 C 91 % 1026,5 hPa 0,0 l/m 0 min 0 min 33 W/m 16,1 km/h (3 Bft) 95,65 %
30.09.2021 08:38 8,4 C 7,8 C 7,8 C 91 % 1026,5 hPa 0,0 l/m 0 min 0 min 33 W/m 19,3 km/h (3 Bft) 94,00 %
30.09.2021 08:40 8,4 C 8,3 C 7,8 C 91 % 1026,5 hPa 0,0 l/m 0 min 0 min 32 W/m 19,3 km/h (3 Bft) 95,74 %
30.09.2021 08:42 8,4 C 8,3 C 7,8 C 90 % 1026,5 hPa 0,0 l/m 0 min 0 min 30 W/m 16,1 km/h (3 Bft) 89,36 %
30.09.2021 08:44 8,5 C 8,3 C 7,8 C 90 % 1026,5 hPa 0,0 l/m 0 min 0 min 29 W/m 22,5 km/h (4 Bft) 95,74 %
30.09.2021 08:45 8,5 C 8,3 C 7,8 C 90 % 1026,4 hPa 0,0 l/m 0 min 0 min 28 W/m 16,1 km/h (3 Bft) 95,74 %
30.09.2021 08:48 8,6 C 8,3 C 7,8 C 90 % 1026,4 hPa 0,0 l/m 0 min 0 min 28 W/m 16,1 km/h (3 Bft) 100,00 %
30.09.2021 08:50 8,6 C 8,3 C 7,8 C 90 % 1026,6 hPa 0,0 l/m 0 min 0 min 30 W/m 19,3 km/h (3 Bft) 95,74 %
30.09.2021 08:52 8,6 C 8,3 C 8,4 C 90 % 1026,5 hPa 0,0 l/m 0 min 0 min 32 W/m 19,3 km/h (3 Bft) 97,87 %
30.09.2021 08:54 8,7 C 8,3 C 8,4 C 90 % 1026,5 hPa 0,0 l/m 0 min 0 min 33 W/m 9,7 km/h (2 Bft) 95,74 %
30.09.2021 08:56 8,8 C 8,3 C 8,4 C 90 % 1026,6 hPa 0,0 l/m 0 min 0 min 37 W/m 16,1 km/h (3 Bft) 97,87 %
30.09.2021 08:58 8,8 C 8,3 C 8,4 C 89 % 1026,5 hPa 0,0 l/m 0 min 0 min 39 W/m 12,9 km/h (3 Bft) 97,87 %
30.09.2021 09:00 8,8 C 8,3 C 8,4 C 90 % 1026,5 hPa 0,0 l/m 0 min 0 min 41 W/m 9,7 km/h (2 Bft) 97,83 %
30.09.2021 09:02 8,8 C 8,3 C 8,4 C 89 % 1026,4 hPa 0,0 l/m 0 min 0 min 42 W/m 19,3 km/h (3 Bft) 95,83 %
30.09.2021 09:04 8,9 C 8,3 C 8,4 C 89 % 1026,5 hPa 0,0 l/m 0 min 0 min 42 W/m 12,9 km/h (3 Bft) 97,87 %
30.09.2021 09:06 8,9 C 8,9 C 8,4 C 89 % 1026,5 hPa 0,0 l/m 0 min 0 min 40 W/m 9,7 km/h (2 Bft) 97,87 %
30.09.2021 09:08 9,0 C 8,9 C 8,4 C 89 % 1026,5 hPa 0,0 l/m 0 min 0 min 37 W/m 12,9 km/h (3 Bft) 97,87 %
30.09.2021 09:10 9,0 C 8,9 C 8,4 C 89 % 1026,5 hPa 0,0 l/m 0 min 0 min 33 W/m 19,3 km/h (3 Bft) 97,83 %
30.09.2021 09:12 9,0 C 8,9 C 8,4 C 89 % 1026,6 hPa 0,0 l/m 0 min 0 min 31 W/m 12,9 km/h (3 Bft) 95,74 %
30.09.2021 09:14 9,0 C 8,9 C 8,4 C 89 % 1026,6 hPa 0,0 l/m 0 min 0 min 32 W/m 19,3 km/h (3 Bft) 97,87 %
30.09.2021 09:16 9,0 C 8,9 C 8,4 C 89 % 1026,6 hPa 0,0 l/m 0 min 0 min 34 W/m 19,3 km/h (3 Bft) 97,87 %
30.09.2021 09:18 9,1 C 8,9 C 8,4 C 89 % 1026,7 hPa 0,0 l/m 0 min 0 min 38 W/m 16,1 km/h (3 Bft) 97,87 %
30.09.2021 09:20 9,1 C 8,9 C 8,4 C 89 % 1026,7 hPa 0,0 l/m 0 min 0 min 39 W/m 16,1 km/h (3 Bft) 97,87 %
30.09.2021 09:22 9,1 C 8,9 C 8,4 C 88 % 1026,7 hPa 0,0 l/m 0 min 0 min 40 W/m 12,9 km/h (3 Bft) 97,83 %
30.09.2021 09:24 9,2 C 8,9 C 8,4 C 88 % 1026,7 hPa 0,0 l/m 0 min 0 min 40 W/m 6,4 km/h (2 Bft) 97,87 %
30.09.2021 09:26 9,3 C 8,9 C 8,4 C 88 % 1026,7 hPa 0,0 l/m 0 min 0 min 45 W/m 12,9 km/h (3 Bft) 97,87 %
30.09.2021 09:28 9,3 C 9,4 C 8,4 C 88 % 1026,7 hPa 0,0 l/m 0 min 0 min 50 W/m 12,9 km/h (3 Bft) 97,87 %
30.09.2021 09:30 9,4 C 9,4 C 8,9 C 88 % 1026,7 hPa 0,0 l/m 0 min 0 min 53 W/m 12,9 km/h (3 Bft) 93,62 %
30.09.2021 09:32 9,4 C 9,4 C 8,9 C 88 % 1026,7 hPa 0,0 l/m 0 min 0 min 66 W/m 9,7 km/h (2 Bft) 100,00 %
30.09.2021 09:34 9,5 C 9,4 C 8,9 C 88 % 1026,7 hPa 0,0 l/m 0 min 0 min 123 W/m 16,1 km/h (3 Bft) 100,00 %
30.09.2021 09:36 9,5 C 9,4 C 8,9 C 88 % 1026,7 hPa 0,0 l/m 2 min 0 min 206 W/m 16,1 km/h (3 Bft) 97,87 %
30.09.2021 09:38 9,6 C 10,0 C 8,9 C 88 % 1026,7 hPa 0,0 l/m 2 min 0 min 225 W/m 16,1 km/h (3 Bft) 100,00 %
30.09.2021 09:40 9,7 C 10,0 C 8,9 C 87 % 1026,7 hPa 0,0 l/m 2 min 0 min 153 W/m 12,9 km/h (3 Bft) 93,62 %
30.09.2021 09:42 9,8 C 10,0 C 8,9 C 87 % 1026,7 hPa 0,0 l/m 0 min 0 min 136 W/m 16,1 km/h (3 Bft) 100,00 %
30.09.2021 09:44 9,9 C 10,0 C 9,5 C 87 % 1026,7 hPa 0,0 l/m 0 min 0 min 148 W/m 16,1 km/h (3 Bft) 100,00 %
30.09.2021 09:46 10,0 C 10,0 C 9,5 C 87 % 1026,7 hPa 0,0 l/m 0 min 0 min 118 W/m 22,5 km/h (4 Bft) 97,83 %
30.09.2021 09:48 10,0 C 10,0 C 9,5 C 87 % 1026,7 hPa 0,0 l/m 0 min 0 min 154 W/m 12,9 km/h (3 Bft) 97,87 %
30.09.2021 09:50 10,1 C 10,6 C 9,5 C 86 % 1026,7 hPa 0,0 l/m 0 min 0 min 144 W/m 16,1 km/h (3 Bft) 100,00 %
30.09.2021 09:52 10,3 C 10,6 C 9,5 C 86 % 1026,7 hPa 0,0 l/m 0 min 0 min 163 W/m 12,9 km/h (3 Bft) 100,00 %
30.09.2021 09:54 10,3 C 10,6 C 9,5 C 85 % 1026,7 hPa 0,0 l/m 0 min 0 min 126 W/m 19,3 km/h (3 Bft) 100,00 %
30.09.2021 09:56 10,4 C 10,6 C 9,5 C 85 % 1026,7 hPa 0,0 l/m 0 min 0 min 127 W/m 12,9 km/h (3 Bft) 100,00 %
30.09.2021 09:58 10,4 C 10,6 C 9,5 C 85 % 1026,7 hPa 0,0 l/m 0 min 0 min 122 W/m 16,1 km/h (3 Bft) 100,00 %
30.09.2021 10:00 10,5 C 10,6 C 9,5 C 85 % 1026,7 hPa 0,0 l/m 0 min 0 min 111 W/m 12,9 km/h (3 Bft) 97,87 %
30.09.2021 10:02 10,6 C 10,6 C 9,5 C 84 % 1026,8 hPa 0,0 l/m 0 min 0 min 103 W/m 22,5 km/h (4 Bft) 100,00 %
30.09.2021 10:04 10,6 C 10,6 C 9,5 C 84 % 1026,8 hPa 0,0 l/m 0 min 0 min 92 W/m 19,3 km/h (3 Bft) 97,87 %
30.09.2021 10:06 10,6 C 10,6 C 9,5 C 84 % 1026,7 hPa 0,0 l/m 0 min 0 min 95 W/m 9,7 km/h (2 Bft) 100,00 %
30.09.2021 10:08 10,7 C 10,6 C 9,5 C 84 % 1026,7 hPa 0,0 l/m 0 min 0 min 88 W/m 12,9 km/h (3 Bft) 95,74 %
30.09.2021 10:10 10,7 C 10,6 C 10,0 C 84 % 1026,8 hPa 0,0 l/m 0 min 0 min 89 W/m 12,9 km/h (3 Bft) 97,87 %
30.09.2021 10:12 10,8 C 10,6 C 10,0 C 84 % 1026,7 hPa 0,0 l/m 0 min 0 min 94 W/m 16,1 km/h (3 Bft) 97,83 %
30.09.2021 10:14 10,8 C 11,1 C 10,0 C 84 % 1026,8 hPa 0,0 l/m 0 min 0 min 97 W/m 12,9 km/h (3 Bft) 97,87 %
30.09.2021 10:16 10,9 C 11,1 C 10,0 C 83 % 1026,9 hPa 0,0 l/m 0 min 0 min 100 W/m 16,1 km/h (3 Bft) 95,74 %
30.09.2021 10:18 10,9 C 11,1 C 10,0 C 83 % 1026,8 hPa 0,0 l/m 0 min 0 min 112 W/m 22,5 km/h (4 Bft) 97,87 %
30.09.2021 10:20 11,0 C 11,1 C 10,0 C 83 % 1026,9 hPa 0,0 l/m 0 min 0 min 127 W/m 16,1 km/h (3 Bft) 97,87 %
30.09.2021 10:22 11,1 C 11,7 C 10,6 C 83 % 1026,9 hPa 0,0 l/m 0 min 0 min 140 W/m 16,1 km/h (3 Bft) 97,87 %
30.09.2021 10:24 11,2 C 11,7 C 10,6 C 83 % 1026,9 hPa 0,0 l/m 0 min 0 min 154 W/m 12,9 km/h (3 Bft) 97,83 %
30.09.2021 10:26 11,3 C 11,7 C 10,6 C 83 % 1026,9 hPa 0,0 l/m 0 min 0 min 149 W/m 12,9 km/h (3 Bft) 97,87 %
30.09.2021 10:28 11,4 C 11,7 C 10,6 C 82 % 1026,9 hPa 0,0 l/m 0 min 0 min 137 W/m 19,3 km/h (3 Bft) 97,87 %
30.09.2021 10:30 11,5 C 11,7 C 10,6 C 82 % 1026,9 hPa 0,0 l/m 0 min 0 min 126 W/m 12,9 km/h (3 Bft) 97,87 %
30.09.2021 10:32 11,5 C 11,7 C 10,6 C 82 % 1026,9 hPa 0,0 l/m 0 min 0 min 129 W/m 6,4 km/h (2 Bft) 97,87 %
30.09.2021 10:34 11,5 C 11,7 C 10,6 C 82 % 1027,0 hPa 0,0 l/m 0 min 0 min 132 W/m 16,1 km/h (3 Bft) 94,23 %
30.09.2021 10:36 11,5 C 11,7 C 10,6 C 81 % 1027,0 hPa 0,0 l/m 0 min 0 min 133 W/m 22,5 km/h (4 Bft) 94,12 %
30.09.2021 10:38 11,5 C 11,7 C 10,6 C 81 % 1027,0 hPa 0,0 l/m 0 min 0 min 131 W/m 12,9 km/h (3 Bft) 93,48 %
30.09.2021 10:40 11,5 C 11,7 C 10,6 C 80 % 1027,0 hPa 0,0 l/m 0 min 0 min 118 W/m 12,9 km/h (3 Bft) 96,00 %
30.09.2021 10:42 11,5 C 11,7 C 10,6 C 81 % 1027,0 hPa 0,0 l/m 0 min 0 min 119 W/m 12,9 km/h (3 Bft) 91,49 %
30.09.2021 10:44 11,5 C 11,7 C 10,6 C 81 % 1027,0 hPa 0,0 l/m 0 min 0 min 122 W/m 6,4 km/h (2 Bft) 97,83 %
30.09.2021 10:46 11,6 C 11,7 C 10,6 C 81 % 1027,0 hPa 0,0 l/m 0 min 0 min 173 W/m 12,9 km/h (3 Bft) 97,87 %
30.09.2021 10:48 11,6 C 11,7 C 10,6 C 81 % 1027,1 hPa 0,0 l/m 0 min 0 min 171 W/m 9,7 km/h (2 Bft) 97,87 %
30.09.2021 10:50 11,6 C 12,2 C 10,6 C 80 % 1027,0 hPa 0,0 l/m 0 min 0 min 153 W/m 16,1 km/h (3 Bft) 100,00 %
30.09.2021 10:52 11,7 C 12,2 C 11,1 C 80 % 1027,0 hPa 0,0 l/m 0 min 0 min 130 W/m 12,9 km/h (3 Bft) 97,87 %
30.09.2021 10:54 11,8 C 12,2 C 11,1 C 80 % 1027,0 hPa 0,0 l/m 0 min 0 min 139 W/m 12,9 km/h (3 Bft) 97,87 %
30.09.2021 10:56 11,9 C 12,8 C 11,1 C 80 % 1027,0 hPa 0,0 l/m 0 min 0 min 101 W/m 6,4 km/h (2 Bft) 95,65 %
30.09.2021 10:58 12,0 C 12,8 C 11,7 C 80 % 1027,1 hPa 0,0 l/m 0 min 0 min 112 W/m 16,1 km/h (3 Bft) 97,87 %
30.09.2021 11:00 12,1 C 12,8 C 12,3 C 80 % 1027,0 hPa 0,0 l/m 0 min 0 min 104 W/m 12,9 km/h (3 Bft) 95,74 %
30.09.2021 11:02 12,2 C 13,3 C 12,8 C 80 % 1027,0 hPa 0,0 l/m 0 min 0 min 103 W/m 12,9 km/h (3 Bft) 95,74 %
30.09.2021 11:04 12,3 C 13,3 C 13,4 C 80 % 1027,0 hPa 0,0 l/m 0 min 0 min 109 W/m 16,1 km/h (3 Bft) 97,87 %
30.09.2021 11:06 12,4 C 13,9 C 13,9 C 79 % 1027,1 hPa 0,0 l/m 0 min 0 min 110 W/m 16,1 km/h (3 Bft) 97,83 %
30.09.2021 11:08 12,5 C 13,9 C 13,9 C 79 % 1027,0 hPa 0,0 l/m 0 min 0 min 229 W/m 29,0 km/h (5 Bft) 97,87 %
30.09.2021 11:10 12,5 C 13,9 C 13,9 C 78 % 1027,1 hPa 0,0 l/m 0 min 0 min 232 W/m 16,1 km/h (3 Bft) 97,87 %
30.09.2021 11:12 12,6 C 14,4 C 13,4 C 77 % 1027,1 hPa 0,0 l/m 0 min 0 min 230 W/m 25,7 km/h (4 Bft) 95,74 %
30.09.2021 11:14 12,6 C 15,0 C 13,4 C 77 % 1027,1 hPa 0,0 l/m 0 min 0 min 209 W/m 16,1 km/h (3 Bft) 97,87 %
30.09.2021 11:16 12,7 C 15,6 C 13,4 C 77 % 1027,1 hPa 0,0 l/m 2 min 0 min 262 W/m 6,4 km/h (2 Bft) 95,74 %
30.09.2021 11:18 12,9 C 15,6 C 13,9 C 77 % 1027,1 hPa 0,0 l/m 2 min 0 min 277 W/m 12,9 km/h (3 Bft) 97,83 %
30.09.2021 11:20 13,0 C 16,1 C 14,5 C 77 % 1027,1 hPa 0,0 l/m 2 min 0 min 297 W/m 19,3 km/h (3 Bft) 93,62 %
30.09.2021 11:22 13,0 C 16,1 C 15,0 C 75 % 1027,2 hPa 0,0 l/m 2 min 0 min 530 W/m 22,5 km/h (4 Bft) 95,74 %
30.09.2021 11:24 13,0 C 16,1 C 16,1 C 75 % 1027,1 hPa 0,2 l/m 2 min 0 min 531 W/m 16,1 km/h (3 Bft) 97,87 %
30.09.2021 11:26 13,1 C 16,1 C 17,3 C 75 % 1027,1 hPa 0,0 l/m 2 min 0 min 544 W/m 19,3 km/h (3 Bft) 95,74 %
30.09.2021 11:28 13,1 C 16,1 C 17,8 C 76 % 1027,1 hPa 0,0 l/m 2 min 0 min 546 W/m 12,9 km/h (3 Bft) 89,36 %
30.09.2021 11:30 13,3 C 16,1 C 18,4 C 75 % 1027,1 hPa 0,0 l/m 2 min 0 min 553 W/m 9,7 km/h (2 Bft) 93,48 %
30.09.2021 11:32 13,4 C 16,1 C 18,9 C 75 % 1027,1 hPa 0,0 l/m 2 min 0 min 557 W/m 6,4 km/h (2 Bft) 95,74 %
30.09.2021 11:34 13,5 C 16,1 C 19,5 C 75 % 1027,1 hPa 0,0 l/m 2 min 0 min 562 W/m 16,1 km/h (3 Bft) 97,87 %
30.09.2021 11:36 13,6 C 16,7 C 19,5 C 75 % 1027,1 hPa 0,0 l/m 2 min 0 min 571 W/m 19,3 km/h (3 Bft) 95,74 %
30.09.2021 11:38 13,7 C 17,8 C 20,0 C 75 % 1027,0 hPa 0,0 l/m 2 min 0 min 578 W/m 16,1 km/h (3 Bft) 95,74 %
30.09.2021 11:40 13,8 C 18,3 C 20,0 C 74 % 1027,1 hPa 0,0 l/m 2 min 0 min 583 W/m 16,1 km/h (3 Bft) 95,74 %
30.09.2021 11:42 13,9 C 18,3 C 20,0 C 73 % 1026,9 hPa 0,0 l/m 2 min 0 min 589 W/m 19,3 km/h (3 Bft) 95,65 %
30.09.2021 11:44 13,9 C 18,9 C 20,6 C 73 % 1026,9 hPa 0,0 l/m 2 min 0 min 598 W/m 19,3 km/h (3 Bft) 95,74 %
30.09.2021 11:46 13,9 C 20,0 C 20,6 C 73 % 1026,9 hPa 0,0 l/m 2 min 0 min 605 W/m 9,7 km/h (2 Bft) 95,74 %
30.09.2021 11:48 14,0 C 20,6 C 20,6 C 74 % 1027,0 hPa 0,0 l/m 2 min 0 min 621 W/m 6,4 km/h (2 Bft) 93,62 %
30.09.2021 11:50 14,2 C 20,0 C 20,6 C 73 % 1026,9 hPa 0,0 l/m 2 min 0 min 631 W/m 19,3 km/h (3 Bft) 95,74 %
30.09.2021 11:52 14,2 C 18,9 C 19,5 C 72 % 1026,9 hPa 0,0 l/m 2 min 0 min 638 W/m 19,3 km/h (3 Bft) 94,29 %
30.09.2021 11:54 14,2 C 17,8 C 17,8 C 70 % 1026,9 hPa 0,0 l/m 0 min 0 min 235 W/m 29,0 km/h (5 Bft) 95,74 %
30.09.2021 11:56 14,2 C 16,1 C 16,7 C 69 % 1026,9 hPa 0,0 l/m 2 min 0 min 362 W/m 19,3 km/h (3 Bft) 95,65 %
30.09.2021 11:58 14,1 C 15,6 C 16,1 C 70 % 1026,9 hPa 0,0 l/m 0 min 0 min 185 W/m 16,1 km/h (3 Bft) 94,92 %
30.09.2021 12:00 14,0 C 15,0 C 15,0 C 70 % 1026,9 hPa 0,0 l/m 0 min 0 min 198 W/m 19,3 km/h (3 Bft) 97,14 %
30.09.2021 12:02 13,9 C 16,1 C 15,0 C 70 % 1026,9 hPa 0,0 l/m 2 min 0 min 339 W/m 12,9 km/h (3 Bft) 94,55 %
30.09.2021 12:04 13,8 C 15,6 C 14,5 C 70 % 1026,9 hPa 0,0 l/m 2 min 0 min 316 W/m 16,1 km/h (3 Bft) 95,74 %
30.09.2021 12:08 13,9 C 16,1 C 15,0 C 71 % 1026,9 hPa 0,0 l/m 0 min 0 min 266 W/m 29,0 km/h (5 Bft) 96,94 %
30.09.2021 12:10 13,9 C 15,6 C 14,5 C 69 % 1026,8 hPa 0,0 l/m 0 min 0 min 239 W/m 29,0 km/h (5 Bft) 95,92 %
30.09.2021 12:12 14,0 C 16,1 C 14,5 C 69 % 1026,9 hPa 0,0 l/m 2 min 0 min 283 W/m 12,9 km/h (3 Bft) 94,29 %
30.09.2021 12:14 14,1 C 15,6 C 13,9 C 69 % 1026,8 hPa 0,0 l/m 2 min 0 min 283 W/m 12,9 km/h (3 Bft) 95,74 %
30.09.2021 12:16 14,2 C 15,6 C 13,9 C 70 % 1026,8 hPa 0,0 l/m 2 min 0 min 280 W/m 16,1 km/h (3 Bft) 97,87 %
30.09.2021 12:18 14,2 C 15,6 C 13,9 C 70 % 1026,8 hPa 0,0 l/m 2 min 0 min 292 W/m 29,0 km/h (5 Bft) 97,83 %
30.09.2021 12:20 14,2 C 15,6 C 13,9 C 69 % 1026,8 hPa 0,0 l/m 2 min 0 min 336 W/m 22,5 km/h (4 Bft) 98,21 %
30.09.2021 12:22 14,3 C 15,0 C 13,9 C 69 % 1026,8 hPa 0,0 l/m 2 min 0 min 334 W/m 22,5 km/h (4 Bft) 94,74 %
30.09.2021 12:24 14,3 C 15,6 C 13,9 C 69 % 1026,8 hPa 0,0 l/m 2 min 0 min 323 W/m 22,5 km/h (4 Bft) 97,87 %
30.09.2021 12:26 14,4 C 15,6 C 13,9 C 69 % 1026,7 hPa 0,0 l/m 2 min 0 min 316 W/m 19,3 km/h (3 Bft) 97,87 %
30.09.2021 12:28 14,4 C 15,0 C 13,9 C 68 % 1026,8 hPa 0,0 l/m 2 min 0 min 296 W/m 25,7 km/h (4 Bft) 97,87 %
30.09.2021 12:30 14,4 C 15,0 C 13,4 C 68 % 1026,9 hPa 0,0 l/m 2 min 0 min 284 W/m 19,3 km/h (3 Bft) 97,83 %
30.09.2021 12:32 14,5 C 15,0 C 13,4 C 68 % 1026,7 hPa 0,0 l/m 0 min 0 min 272 W/m 12,9 km/h (3 Bft) 97,87 %
30.09.2021 12:34 14,4 C 15,0 C 13,4 C 68 % 1026,8 hPa 0,0 l/m 2 min 0 min 281 W/m 16,1 km/h (3 Bft) 97,87 %
30.09.2021 12:36 14,4 C 15,0 C 13,4 C 68 % 1026,7 hPa 0,0 l/m 2 min 0 min 319 W/m 12,9 km/h (3 Bft) 97,87 %
30.09.2021 12:38 14,5 C 15,0 C 13,4 C 68 % 1026,8 hPa 0,0 l/m 2 min 0 min 308 W/m 22,5 km/h (4 Bft) 98,11 %
30.09.2021 12:40 14,5 C 15,0 C 13,4 C 68 % 1026,7 hPa 0,0 l/m 2 min 0 min 310 W/m 16,1 km/h (3 Bft) 97,83 %
30.09.2021 12:42 14,6 C 15,0 C 13,9 C 68 % 1026,6 hPa 0,0 l/m 2 min 0 min 309 W/m 16,1 km/h (3 Bft) 98,00 %
30.09.2021 12:44 14,6 C 15,0 C 13,4 C 68 % 1026,7 hPa 0,0 l/m 2 min 0 min 324 W/m 19,3 km/h (3 Bft) 100,00 %
30.09.2021 12:46 14,6 C 15,0 C 13,4 C 67 % 1026,7 hPa 0,0 l/m 2 min 0 min 350 W/m 25,7 km/h (4 Bft) 100,00 %
30.09.2021 12:48 14,6 C 15,0 C 13,4 C 68 % 1026,7 hPa 0,0 l/m 2 min 0 min 358 W/m 19,3 km/h (3 Bft) 100,00 %
30.09.2021 12:50 14,6 C 15,6 C 13,4 C 68 % 1026,6 hPa 0,0 l/m 2 min 0 min 356 W/m 35,4 km/h (5 Bft) 100,00 %
30.09.2021 12:52 14,6 C 15,0 C 13,4 C 67 % 1026,6 hPa 0,0 l/m 2 min 0 min 361 W/m 29,0 km/h (5 Bft) 100,00 %
30.09.2021 12:54 14,6 C 15,0 C 13,4 C 67 % 1026,6 hPa 0,0 l/m 2 min 0 min 348 W/m 22,5 km/h (4 Bft) 100,00 %
30.09.2021 12:56 14,6 C 15,0 C 13,4 C 67 % 1026,5 hPa 0,0 l/m 2 min 0 min 336 W/m 19,3 km/h (3 Bft) 97,87 %
30.09.2021 12:58 14,6 C 15,0 C 13,4 C 67 % 1026,6 hPa 0,0 l/m 2 min 0 min 331 W/m 6,4 km/h (2 Bft) 100,00 %
30.09.2021 13:00 14,6 C 15,0 C 13,4 C 68 % 1026,5 hPa 0,0 l/m 2 min 0 min 323 W/m 25,7 km/h (4 Bft) 100,00 %
30.09.2021 13:02 14,6 C 15,0 C 13,4 C 67 % 1026,5 hPa 0,0 l/m 2 min 0 min 333 W/m 16,1 km/h (3 Bft) 97,87 %
30.09.2021 13:04 14,7 C 15,0 C 13,4 C 66 % 1026,5 hPa 0,0 l/m 2 min 0 min 340 W/m 16,1 km/h (3 Bft) 100,00 %
30.09.2021 13:06 14,8 C 15,6 C 13,9 C 66 % 1026,5 hPa 0,0 l/m 2 min 0 min 315 W/m 22,5 km/h (4 Bft) 100,00 %
30.09.2021 13:08 14,9 C 15,6 C 13,9 C 66 % 1026,5 hPa 0,0 l/m 2 min 0 min 302 W/m 19,3 km/h (3 Bft) 100,00 %
30.09.2021 13:10 15,0 C 15,6 C 13,9 C 65 % 1026,4 hPa 0,0 l/m 2 min 0 min 305 W/m 16,1 km/h (3 Bft) 100,00 %
30.09.2021 13:12 15,1 C 15,6 C 13,9 C 65 % 1026,5 hPa 0,0 l/m 2 min 0 min 330 W/m 25,7 km/h (4 Bft) 97,37 %
30.09.2021 13:14 15,3 C 15,6 C 13,9 C 65 % 1026,5 hPa 0,0 l/m 0 min 0 min 270 W/m 12,9 km/h (3 Bft) 100,00 %
30.09.2021 13:16 15,3 C 15,6 C 13,9 C 65 % 1026,5 hPa 0,0 l/m 0 min 0 min 272 W/m 22,5 km/h (4 Bft) 100,00 %
30.09.2021 13:18 15,3 C 15,6 C 13,4 C 64 % 1026,5 hPa 0,0 l/m 2 min 0 min 295 W/m 19,3 km/h (3 Bft) 100,00 %
30.09.2021 13:20 15,3 C 15,6 C 13,4 C 64 % 1026,4 hPa 0,0 l/m 2 min 0 min 328 W/m 32,2 km/h (5 Bft) 100,00 %
30.09.2021 13:22 15,3 C 15,6 C 13,4 C 64 % 1026,4 hPa 0,0 l/m 0 min 0 min 276 W/m 22,5 km/h (4 Bft) 100,00 %
30.09.2021 13:24 15,3 C 15,6 C 13,4 C 63 % 1026,4 hPa 0,0 l/m 0 min 0 min 281 W/m 22,5 km/h (4 Bft) 100,00 %
30.09.2021 13:26 15,3 C 15,6 C 13,4 C 64 % 1026,5 hPa 0,0 l/m 2 min 0 min 317 W/m 19,3 km/h (3 Bft) 97,83 %
30.09.2021 13:28 15,2 C 15,6 C 13,4 C 64 % 1026,4 hPa 0,0 l/m 2 min 0 min 319 W/m 12,9 km/h (3 Bft) 100,00 %
30.09.2021 13:30 15,1 C 15,6 C 13,4 C 65 % 1026,4 hPa 0,0 l/m 2 min 0 min 311 W/m 12,9 km/h (3 Bft) 100,00 %
30.09.2021 13:32 15,1 C 15,6 C 13,4 C 65 % 1026,5 hPa 0,0 l/m 2 min 0 min 319 W/m 16,1 km/h (3 Bft) 100,00 %
30.09.2021 13:34 15,0 C 15,6 C 13,4 C 65 % 1026,4 hPa 0,0 l/m 2 min 0 min 339 W/m 12,9 km/h (3 Bft) 100,00 %
30.09.2021 13:36 15,1 C 15,6 C 13,4 C 67 % 1026,4 hPa 0,0 l/m 2 min 0 min 373 W/m 16,1 km/h (3 Bft) 100,00 %
30.09.2021 13:38 15,1 C 15,6 C 13,4 C 66 % 1026,3 hPa 0,0 l/m 2 min 0 min 334 W/m 16,1 km/h (3 Bft) 100,00 %
30.09.2021 13:40 15,1 C 15,6 C 13,4 C 66 % 1026,3 hPa 0,0 l/m 2 min 0 min 297 W/m 22,5 km/h (4 Bft) 100,00 %
30.09.2021 13:42 15,1 C 15,6 C 13,4 C 66 % 1026,4 hPa 0,0 l/m 0 min 0 min 285 W/m 22,5 km/h (4 Bft) 100,00 %
30.09.2021 13:44 15,0 C 15,6 C 13,4 C 66 % 1026,3 hPa 0,0 l/m 0 min 0 min 263 W/m 22,5 km/h (4 Bft) 100,00 %
30.09.2021 13:46 15,0 C 15,0 C 13,4 C 65 % 1026,3 hPa 0,0 l/m 0 min 0 min 249 W/m 12,9 km/h (3 Bft) 97,87 %
30.09.2021 13:48 15,0 C 15,0 C 13,4 C 66 % 1026,3 hPa 0,0 l/m 0 min 0 min 251 W/m 19,3 km/h (3 Bft) 100,00 %
30.09.2021 13:50 15,0 C 15,0 C 13,4 C 67 % 1026,3 hPa 0,0 l/m 0 min 0 min 249 W/m 12,9 km/h (3 Bft) 100,00 %
30.09.2021 13:52 14,9 C 15,0 C 12,8 C 66 % 1026,3 hPa 0,0 l/m 0 min 0 min 252 W/m 12,9 km/h (3 Bft) 100,00 %
30.09.2021 13:54 14,9 C 15,0 C 13,4 C 67 % 1026,2 hPa 0,0 l/m 0 min 0 min 254 W/m 12,9 km/h (3 Bft) 100,00 %
30.09.2021 13:56 14,9 C 15,0 C 13,4 C 67 % 1026,2 hPa 0,0 l/m 0 min 0 min 258 W/m 12,9 km/h (3 Bft) 100,00 %
30.09.2021 13:58 14,9 C 15,0 C 12,8 C 67 % 1026,2 hPa 0,0 l/m 0 min 0 min 260 W/m 12,9 km/h (3 Bft) 97,87 %
30.09.2021 14:00 14,9 C 15,0 C 12,8 C 67 % 1026,2 hPa 0,0 l/m 0 min 0 min 262 W/m 16,1 km/h (3 Bft) 97,87 %
30.09.2021 14:02 14,9 C 15,0 C 13,4 C 67 % 1026,2 hPa 0,0 l/m 0 min 0 min 264 W/m 12,9 km/h (3 Bft) 97,87 %
30.09.2021 14:04 14,9 C 15,0 C 13,4 C 67 % 1026,2 hPa 0,0 l/m 0 min 0 min 274 W/m 25,7 km/h (4 Bft) 97,87 %
30.09.2021 14:06 14,9 C 15,0 C 13,4 C 66 % 1026,2 hPa 0,0 l/m 2 min 0 min 287 W/m 16,1 km/h (3 Bft) 97,87 %
30.09.2021 14:08 14,9 C 15,0 C 13,4 C 65 % 1026,2 hPa 0,0 l/m 2 min 0 min 297 W/m 32,2 km/h (5 Bft) 96,36 %
30.09.2021 14:10 14,8 C 15,0 C 12,8 C 65 % 1026,1 hPa 0,0 l/m 2 min 0 min 324 W/m 25,7 km/h (4 Bft) 95,74 %
30.09.2021 14:12 14,8 C 15,0 C 12,8 C 65 % 1026,1 hPa 0,0 l/m 2 min 0 min 336 W/m 22,5 km/h (4 Bft) 97,37 %
30.09.2021 14:14 14,8 C 15,0 C 12,8 C 66 % 1026,0 hPa 0,0 l/m 2 min 0 min 319 W/m 12,9 km/h (3 Bft) 97,87 %
30.09.2021 14:16 14,9 C 15,6 C 13,4 C 66 % 1026,0 hPa 0,0 l/m 2 min 0 min 313 W/m 6,4 km/h (2 Bft) 95,74 %
30.09.2021 14:18 14,9 C 15,6 C 13,4 C 66 % 1026,0 hPa 0,0 l/m 2 min 0 min 302 W/m 19,3 km/h (3 Bft) 94,55 %
30.09.2021 14:20 14,9 C 15,6 C 13,4 C 66 % 1026,0 hPa 0,0 l/m 2 min 0 min 292 W/m 16,1 km/h (3 Bft) 97,30 %
30.09.2021 14:22 15,0 C 15,6 C 13,4 C 66 % 1026,0 hPa 0,0 l/m 2 min 0 min 284 W/m 19,3 km/h (3 Bft) 93,75 %
30.09.2021 14:24 15,0 C 15,6 C 13,4 C 65 % 1026,0 hPa 0,0 l/m 0 min 0 min 267 W/m 19,3 km/h (3 Bft) 95,74 %
30.09.2021 14:26 15,1 C 15,6 C 13,4 C 65 % 1026,0 hPa 0,0 l/m 0 min 0 min 253 W/m 19,3 km/h (3 Bft) 91,30 %
30.09.2021 14:28 15,1 C 15,6 C 13,4 C 65 % 1025,9 hPa 0,0 l/m 0 min 0 min 252 W/m 16,1 km/h (3 Bft) 93,62 %
30.09.2021 14:30 15,2 C 15,6 C 13,4 C 66 % 1025,9 hPa 0,0 l/m 0 min 0 min 255 W/m 9,7 km/h (2 Bft) 95,74 %
30.09.2021 14:32 15,3 C 15,6 C 13,4 C 66 % 1025,9 hPa 0,0 l/m 0 min 0 min 270 W/m 16,1 km/h (3 Bft) 95,83 %
30.09.2021 14:34 15,4 C 15,6 C 13,4 C 66 % 1025,9 hPa 0,0 l/m 2 min 0 min 342 W/m 16,1 km/h (3 Bft) 95,74 %
30.09.2021 14:36 15,4 C 16,1 C 13,4 C 66 % 1025,9 hPa 0,0 l/m 2 min 0 min 312 W/m 16,1 km/h (3 Bft) 92,59 %
30.09.2021 14:38 15,5 C 16,1 C 13,4 C 66 % 1025,9 hPa 0,0 l/m 2 min 0 min 308 W/m 12,9 km/h (3 Bft) 95,74 %
30.09.2021 14:40 15,5 C 16,1 C 13,4 C 65 % 1025,8 hPa 0,0 l/m 2 min 0 min 299 W/m 25,7 km/h (4 Bft) 94,74 %
30.09.2021 14:42 15,5 C 15,6 C 13,4 C 66 % 1025,9 hPa 0,0 l/m 2 min 0 min 279 W/m 19,3 km/h (3 Bft) 97,83 %
30.09.2021 14:44 15,5 C 15,6 C 13,4 C 66 % 1025,9 hPa 0,0 l/m 0 min 0 min 256 W/m 9,7 km/h (2 Bft) 91,49 %
30.09.2021 14:46 15,5 C 15,6 C 13,4 C 65 % 1025,8 hPa 0,0 l/m 0 min 0 min 228 W/m 22,5 km/h (4 Bft) 95,83 %
30.09.2021 14:48 15,5 C 15,6 C 13,4 C 66 % 1025,8 hPa 0,0 l/m 0 min 0 min 211 W/m 16,1 km/h (3 Bft) 95,65 %
30.09.2021 14:50 15,5 C 15,6 C 13,4 C 66 % 1025,9 hPa 0,0 l/m 0 min 0 min 190 W/m 22,5 km/h (4 Bft) 93,62 %
30.09.2021 14:52 15,5 C 15,6 C 13,4 C 66 % 1025,9 hPa 0,0 l/m 0 min 0 min 175 W/m 12,9 km/h (3 Bft) 95,74 %
30.09.2021 14:54 15,5 C 15,6 C 13,4 C 66 % 1025,8 hPa 0,0 l/m 0 min 0 min 194 W/m 9,7 km/h (2 Bft) 94,55 %
30.09.2021 14:56 15,5 C 15,6 C 13,4 C 67 % 1025,8 hPa 0,0 l/m 0 min 0 min 226 W/m 6,4 km/h (2 Bft) 93,62 %
30.09.2021 14:58 15,5 C 15,6 C 13,4 C 67 % 1025,8 hPa 0,0 l/m 0 min 0 min 240 W/m 16,1 km/h (3 Bft) 97,87 %
30.09.2021 15:00 15,5 C 15,6 C 13,4 C 66 % 1025,7 hPa 0,0 l/m 0 min 0 min 244 W/m 22,5 km/h (4 Bft) 97,83 %
30.09.2021 15:02 15,5 C 15,6 C 13,4 C 66 % 1025,7 hPa 0,0 l/m 0 min 0 min 240 W/m 12,9 km/h (3 Bft) 97,87 %
30.09.2021 15:04 15,5 C 15,6 C 13,4 C 66 % 1025,7 hPa 0,0 l/m 0 min 0 min 243 W/m 9,7 km/h (2 Bft) 97,37 %
30.09.2021 15:06 15,5 C 15,6 C 13,4 C 66 % 1025,7 hPa 0,0 l/m 0 min 0 min 245 W/m 16,1 km/h (3 Bft) 97,92 %
30.09.2021 15:08 15,5 C 15,6 C 13,4 C 66 % 1025,7 hPa 0,0 l/m 0 min 0 min 237 W/m 16,1 km/h (3 Bft) 97,87 %
30.09.2021 15:10 15,5 C 15,6 C 13,4 C 65 % 1025,6 hPa 0,0 l/m 0 min 0 min 222 W/m 16,1 km/h (3 Bft) 97,87 %
30.09.2021 15:12 15,5 C 15,6 C 13,4 C 66 % 1025,6 hPa 0,0 l/m 0 min 0 min 197 W/m 12,9 km/h (3 Bft) 97,83 %
30.09.2021 15:14 15,5 C 15,6 C 13,4 C 67 % 1025,6 hPa 0,0 l/m 0 min 0 min 184 W/m 6,4 km/h (2 Bft) 97,87 %
30.09.2021 15:16 15,5 C 15,6 C 13,4 C 67 % 1025,6 hPa 0,0 l/m 0 min 0 min 195 W/m 16,1 km/h (3 Bft) 97,87 %
30.09.2021 15:18 15,5 C 15,0 C 13,4 C 66 % 1025,6 hPa 0,0 l/m 0 min 0 min 175 W/m 16,1 km/h (3 Bft) 44,74 %
30.09.2021 15:20 15,4 C 15,0 C 13,4 C 66 % 1025,6 hPa 0,0 l/m 0 min 0 min 143 W/m 19,3 km/h (3 Bft) 95,74 %
30.09.2021 15:22 15,3 C 15,0 C 12,8 C 66 % 1025,5 hPa 0,0 l/m 0 min 0 min 156 W/m 19,3 km/h (3 Bft) 97,87 %
30.09.2021 15:24 15,3 C 15,0 C 12,8 C 67 % 1025,6 hPa 0,0 l/m 0 min 0 min 158 W/m 25,7 km/h (4 Bft) 97,83 %
30.09.2021 15:26 15,1 C 15,0 C 12,8 C 66 % 1025,5 hPa 0,0 l/m 0 min 0 min 154 W/m 12,9 km/h (3 Bft) 97,87 %
30.09.2021 15:28 15,1 C 15,0 C 12,8 C 67 % 1025,5 hPa 0,0 l/m 0 min 0 min 139 W/m 16,1 km/h (3 Bft) 97,87 %
30.09.2021 15:30 15,1 C 15,0 C 12,8 C 67 % 1025,5 hPa 0,0 l/m 0 min 0 min 136 W/m 12,9 km/h (3 Bft) 97,87 %
30.09.2021 15:32 15,1 C 14,4 C 12,8 C 66 % 1025,5 hPa 0,0 l/m 0 min 0 min 139 W/m 25,7 km/h (4 Bft) 98,11 %
30.09.2021 15:34 15,0 C 14,4 C 12,8 C 67 % 1025,4 hPa 0,0 l/m 0 min 0 min 136 W/m 22,5 km/h (4 Bft) 97,83 %
30.09.2021 15:36 15,0 C 14,4 C 12,8 C 67 % 1025,3 hPa 0,0 l/m 0 min 0 min 132 W/m 22,5 km/h (4 Bft) 96,00 %
30.09.2021 15:38 14,9 C 14,4 C 12,8 C 67 % 1025,3 hPa 0,0 l/m 0 min 0 min 131 W/m 19,3 km/h (3 Bft) 97,87 %
30.09.2021 15:40 14,9 C 14,4 C 12,8 C 67 % 1025,2 hPa 0,0 l/m 0 min 0 min 131 W/m 19,3 km/h (3 Bft) 97,37 %
30.09.2021 15:42 14,9 C 14,4 C 12,8 C 68 % 1025,2 hPa 0,0 l/m 0 min 0 min 141 W/m 22,5 km/h (4 Bft) 95,74 %
30.09.2021 15:44 14,9 C 14,4 C 12,8 C 68 % 1025,2 hPa 0,0 l/m 0 min 0 min 155 W/m 12,9 km/h (3 Bft) 100,00 %
30.09.2021 15:46 14,9 C 14,4 C 12,8 C 68 % 1025,2 hPa 0,0 l/m 0 min 0 min 155 W/m 16,1 km/h (3 Bft) 100,00 %
30.09.2021 15:48 14,9 C 14,4 C 12,8 C 68 % 1025,2 hPa 0,0 l/m 0 min 0 min 139 W/m 12,9 km/h (3 Bft) 100,00 %
30.09.2021 15:50 14,9 C 14,4 C 12,8 C 68 % 1025,2 hPa 0,0 l/m 0 min 0 min 127 W/m 16,1 km/h (3 Bft) 100,00 %
30.09.2021 15:52 14,9 C 14,4 C 12,8 C 68 % 1025,2 hPa 0,0 l/m 0 min 0 min 117 W/m 22,5 km/h (4 Bft) 97,87 %
30.09.2021 15:54 14,9 C 14,4 C 12,3 C 69 % 1025,2 hPa 0,0 l/m 0 min 0 min 107 W/m 29,0 km/h (5 Bft) 100,00 %
30.09.2021 15:56 14,9 C 14,4 C 12,3 C 69 % 1025,2 hPa 0,0 l/m 0 min 0 min 106 W/m 19,3 km/h (3 Bft) 100,00 %
30.09.2021 15:58 14,9 C 14,4 C 12,3 C 69 % 1025,2 hPa 0,0 l/m 0 min 0 min 110 W/m 19,3 km/h (3 Bft) 100,00 %
30.09.2021 16:00 14,8 C 14,4 C 12,3 C 69 % 1025,2 hPa 0,0 l/m 0 min 0 min 113 W/m 22,5 km/h (4 Bft) 100,00 %
30.09.2021 16:02 14,8 C 14,4 C 12,3 C 70 % 1025,2 hPa 0,0 l/m 0 min 0 min 115 W/m 19,3 km/h (3 Bft) 100,00 %
30.09.2021 16:04 14,8 C 14,4 C 12,3 C 69 % 1025,1 hPa 0,0 l/m 0 min 0 min 117 W/m 22,5 km/h (4 Bft) 96,00 %
30.09.2021 16:06 14,8 C 14,4 C 12,3 C 68 % 1025,1 hPa 0,0 l/m 0 min 0 min 127 W/m 22,5 km/h (4 Bft) 97,87 %
30.09.2021 16:08 14,8 C 14,4 C 12,3 C 68 % 1025,1 hPa 0,0 l/m 0 min 0 min 133 W/m 19,3 km/h (3 Bft) 97,83 %
30.09.2021 16:10 14,8 C 14,4 C 12,3 C 67 % 1025,1 hPa 0,0 l/m 0 min 0 min 144 W/m 16,1 km/h (3 Bft) 100,00 %
30.09.2021 16:12 14,8 C 14,4 C 12,3 C 67 % 1025,1 hPa 0,0 l/m 0 min 0 min 138 W/m 16,1 km/h (3 Bft) 97,87 %
30.09.2021 16:14 14,8 C 14,4 C 12,3 C 68 % 1025,0 hPa 0,0 l/m 0 min 0 min 131 W/m 9,7 km/h (2 Bft) 97,87 %
30.09.2021 16:16 14,8 C 14,4 C 12,3 C 67 % 1025,1 hPa 0,0 l/m 0 min 0 min 135 W/m 29,0 km/h (5 Bft) 97,87 %
30.09.2021 16:18 14,8 C 14,4 C 12,3 C 67 % 1025,0 hPa 0,0 l/m 0 min 0 min 142 W/m 29,0 km/h (5 Bft) 100,00 %
30.09.2021 16:20 14,8 C 14,4 C 12,3 C 68 % 1025,1 hPa 0,0 l/m 0 min 0 min 154 W/m 19,3 km/h (3 Bft) 100,00 %
30.09.2021 16:22 14,8 C 14,4 C 12,3 C 68 % 1025,0 hPa 0,0 l/m 0 min 0 min 188 W/m 22,5 km/h (4 Bft) 97,87 %
30.09.2021 16:24 14,8 C 15,0 C 12,3 C 67 % 1024,9 hPa 0,0 l/m 2 min 0 min 213 W/m 25,7 km/h (4 Bft) 97,87 %
30.09.2021 16:26 14,8 C 15,0 C 12,3 C 67 % 1024,9 hPa 0,0 l/m 2 min 0 min 196 W/m 12,9 km/h (3 Bft) 97,87 %
30.09.2021 16:28 14,8 C 15,0 C 12,8 C 68 % 1024,9 hPa 0,0 l/m 0 min 0 min 177 W/m 16,1 km/h (3 Bft) 95,74 %
30.09.2021 16:30 14,9 C 15,0 C 12,8 C 68 % 1024,9 hPa 0,0 l/m 0 min 0 min 180 W/m 16,1 km/h (3 Bft) 95,74 %
30.09.2021 16:32 14,9 C 15,0 C 12,8 C 68 % 1024,9 hPa 0,0 l/m 2 min 0 min 203 W/m 19,3 km/h (3 Bft) 93,48 %
30.09.2021 16:34 14,9 C 15,0 C 12,8 C 68 % 1024,9 hPa 0,0 l/m 2 min 0 min 215 W/m 19,3 km/h (3 Bft) 95,74 %
30.09.2021 16:36 14,9 C 15,0 C 12,8 C 67 % 1024,8 hPa 0,0 l/m 2 min 0 min 228 W/m 25,7 km/h (4 Bft) 93,62 %
30.09.2021 16:38 14,9 C 15,0 C 12,8 C 67 % 1024,8 hPa 0,0 l/m 2 min 0 min 248 W/m 25,7 km/h (4 Bft) 95,74 %
30.09.2021 16:40 14,9 C 15,0 C 12,8 C 68 % 1024,7 hPa 0,0 l/m 2 min 0 min 232 W/m 22,5 km/h (4 Bft) 95,74 %
30.09.2021 16:42 14,9 C 15,0 C 12,8 C 67 % 1024,7 hPa 0,0 l/m 2 min 0 min 200 W/m 25,7 km/h (4 Bft) 93,62 %
30.09.2021 16:44 15,0 C 15,0 C 12,8 C 68 % 1024,6 hPa 0,0 l/m 2 min 0 min 190 W/m 25,7 km/h (4 Bft) 95,65 %
30.09.2021 16:46 15,0 C 15,0 C 12,8 C 67 % 1024,6 hPa 0,0 l/m 2 min 0 min 179 W/m 16,1 km/h (3 Bft) 95,74 %
30.09.2021 16:48 15,0 C 15,0 C 12,8 C 68 % 1024,6 hPa 0,0 l/m 2 min 0 min 181 W/m 19,3 km/h (3 Bft) 95,74 %
30.09.2021 16:50 15,0 C 15,0 C 12,8 C 67 % 1024,5 hPa 0,0 l/m 2 min 0 min 177 W/m 25,7 km/h (4 Bft) 95,74 %
30.09.2021 16:52 15,0 C 15,0 C 12,8 C 68 % 1024,5 hPa 0,0 l/m 0 min 0 min 168 W/m 22,5 km/h (4 Bft) 95,74 %
30.09.2021 16:54 15,0 C 15,0 C 12,8 C 68 % 1024,5 hPa 0,0 l/m 0 min 0 min 152 W/m 25,7 km/h (4 Bft) 95,74 %
30.09.2021 16:56 15,0 C 15,0 C 12,8 C 68 % 1024,5 hPa 0,0 l/m 0 min 0 min 141 W/m 19,3 km/h (3 Bft) 95,65 %
30.09.2021 16:58 15,0 C 14,4 C 12,3 C 68 % 1024,5 hPa 0,0 l/m 0 min 0 min 136 W/m 22,5 km/h (4 Bft) 97,87 %
30.09.2021 17:00 14,9 C 14,4 C 12,3 C 68 % 1024,4 hPa 0,0 l/m 0 min 0 min 134 W/m 12,9 km/h (3 Bft) 91,49 %
30.09.2021 17:02 14,9 C 14,4 C 12,3 C 68 % 1024,4 hPa 0,0 l/m 0 min 0 min 138 W/m 12,9 km/h (3 Bft) 97,87 %
30.09.2021 17:04 14,9 C 14,4 C 12,3 C 69 % 1024,4 hPa 0,0 l/m 0 min 0 min 132 W/m 19,3 km/h (3 Bft) 97,87 %
30.09.2021 17:06 14,9 C 14,4 C 12,3 C 69 % 1024,4 hPa 0,0 l/m 0 min 0 min 119 W/m 19,3 km/h (3 Bft) 95,65 %
30.09.2021 17:08 14,9 C 14,4 C 12,3 C 69 % 1024,4 hPa 0,0 l/m 0 min 0 min 109 W/m 22,5 km/h (4 Bft) 95,74 %
30.09.2021 17:10 14,9 C 14,4 C 12,3 C 69 % 1024,4 hPa 0,0 l/m 0 min 0 min 99 W/m 16,1 km/h (3 Bft) 95,74 %
30.09.2021 17:12 14,9 C 14,4 C 12,3 C 69 % 1024,4 hPa 0,0 l/m 0 min 0 min 124 W/m 19,3 km/h (3 Bft) 97,87 %
30.09.2021 17:14 14,9 C 15,0 C 12,3 C 69 % 1024,4 hPa 0,0 l/m 2 min 0 min 232 W/m 16,1 km/h (3 Bft) 97,87 %
30.09.2021 17:16 15,0 C 15,0 C 12,3 C 69 % 1024,4 hPa 0,0 l/m 2 min 0 min 262 W/m 16,1 km/h (3 Bft) 100,00 %
30.09.2021 17:18 15,0 C 15,0 C 12,3 C 68 % 1024,4 hPa 0,0 l/m 2 min 0 min 204 W/m 22,5 km/h (4 Bft) 97,87 %
30.09.2021 17:20 15,0 C 15,0 C 12,3 C 68 % 1024,4 hPa 0,0 l/m 2 min 0 min 181 W/m 19,3 km/h (3 Bft) 100,00 %
30.09.2021 17:22 15,0 C 15,0 C 12,3 C 68 % 1024,4 hPa 0,0 l/m 2 min 0 min 158 W/m 22,5 km/h (4 Bft) 100,00 %
30.09.2021 17:24 15,0 C 15,0 C 12,3 C 68 % 1024,4 hPa 0,0 l/m 2 min 0 min 137 W/m 22,5 km/h (4 Bft) 97,87 %
30.09.2021 17:26 15,0 C 15,0 C 12,3 C 68 % 1024,5 hPa 0,0 l/m 0 min 0 min 124 W/m 29,0 km/h (5 Bft) 97,87 %
30.09.2021 17:28 15,0 C 14,4 C 12,3 C 68 % 1024,3 hPa 0,0 l/m 0 min 0 min 113 W/m 16,1 km/h (3 Bft) 100,00 %
30.09.2021 17:30 15,0 C 14,4 C 12,3 C 68 % 1024,3 hPa 0,0 l/m 0 min 0 min 109 W/m 19,3 km/h (3 Bft) 100,00 %
30.09.2021 17:32 15,0 C 14,4 C 12,3 C 68 % 1024,3 hPa 0,0 l/m 0 min 0 min 100 W/m 25,7 km/h (4 Bft) 100,00 %
30.09.2021 17:34 15,0 C 14,4 C 12,3 C 68 % 1024,3 hPa 0,0 l/m 0 min 0 min 105 W/m 16,1 km/h (3 Bft) 97,87 %
30.09.2021 17:36 15,0 C 14,4 C 12,3 C 68 % 1024,2 hPa 0,0 l/m 0 min 0 min 119 W/m 32,2 km/h (5 Bft) 100,00 %
30.09.2021 17:38 15,0 C 14,4 C 12,3 C 68 % 1024,2 hPa 0,0 l/m 0 min 0 min 112 W/m 12,9 km/h (3 Bft) 100,00 %
30.09.2021 17:40 14,9 C 14,4 C 12,3 C 68 % 1024,3 hPa 0,0 l/m 0 min 0 min 106 W/m 19,3 km/h (3 Bft) 97,87 %
30.09.2021 17:42 14,9 C 14,4 C 12,3 C 67 % 1024,2 hPa 0,0 l/m 2 min 0 min 127 W/m 19,3 km/h (3 Bft) 100,00 %
30.09.2021 17:44 14,9 C 14,4 C 12,3 C 67 % 1024,2 hPa 0,0 l/m 2 min 0 min 117 W/m 25,7 km/h (4 Bft) 100,00 %
30.09.2021 17:46 14,9 C 14,4 C 12,3 C 67 % 1024,2 hPa 0,0 l/m 0 min 0 min 102 W/m 12,9 km/h (3 Bft) 100,00 %
30.09.2021 17:48 14,9 C 14,4 C 12,3 C 67 % 1024,2 hPa 0,0 l/m 0 min 0 min 88 W/m 22,5 km/h (4 Bft) 97,87 %
30.09.2021 17:50 14,9 C 14,4 C 12,3 C 67 % 1024,2 hPa 0,0 l/m 0 min 0 min 73 W/m 22,5 km/h (4 Bft) 97,87 %
30.09.2021 17:52 14,9 C 14,4 C 12,3 C 67 % 1024,2 hPa 0,0 l/m 0 min 0 min 62 W/m 19,3 km/h (3 Bft) 97,87 %
30.09.2021 17:54 14,8 C 14,4 C 12,3 C 67 % 1024,2 hPa 0,0 l/m 0 min 0 min 61 W/m 29,0 km/h (5 Bft) 100,00 %
30.09.2021 17:56 14,8 C 14,4 C 12,3 C 68 % 1024,2 hPa 0,0 l/m 0 min 0 min 61 W/m 22,5 km/h (4 Bft) 100,00 %
30.09.2021 17:58 14,8 C 13,9 C 12,3 C 68 % 1024,1 hPa 0,0 l/m 0 min 0 min 51 W/m 16,1 km/h (3 Bft) 100,00 %
30.09.2021 18:00 14,7 C 13,9 C 11,7 C 68 % 1024,1 hPa 0,0 l/m 0 min 0 min 43 W/m 25,7 km/h (4 Bft) 95,74 %
30.09.2021 18:02 14,6 C 13,9 C 11,7 C 68 % 1024,1 hPa 0,0 l/m 0 min 0 min 44 W/m 22,5 km/h (4 Bft) 95,74 %
30.09.2021 18:04 14,6 C 13,9 C 11,7 C 68 % 1024,0 hPa 0,0 l/m 0 min 0 min 47 W/m 22,5 km/h (4 Bft) 97,83 %
30.09.2021 18:06 14,6 C 13,9 C 11,7 C 68 % 1024,0 hPa 0,0 l/m 0 min 0 min 48 W/m 16,1 km/h (3 Bft) 100,00 %
30.09.2021 18:08 14,6 C 13,9 C 11,7 C 69 % 1024,0 hPa 0,0 l/m 0 min 0 min 47 W/m 12,9 km/h (3 Bft) 97,83 %
30.09.2021 18:10 14,6 C 13,9 C 11,7 C 69 % 1024,1 hPa 0,0 l/m 0 min 0 min 38 W/m 19,3 km/h (3 Bft) 95,74 %
30.09.2021 18:12 14,5 C 13,9 C 11,7 C 69 % 1024,1 hPa 0,0 l/m 0 min 0 min 32 W/m 22,5 km/h (4 Bft) 95,74 %
30.09.2021 18:14 14,5 C 13,9 C 11,7 C 69 % 1024,0 hPa 0,0 l/m 0 min 0 min 30 W/m 22,5 km/h (4 Bft) 95,74 %
30.09.2021 18:16 14,5 C 13,9 C 11,7 C 69 % 1024,0 hPa 0,0 l/m 0 min 0 min 31 W/m 9,7 km/h (2 Bft) 95,74 %
30.09.2021 18:18 14,5 C 13,9 C 11,7 C 69 % 1024,0 hPa 0,0 l/m 0 min 0 min 33 W/m 16,1 km/h (3 Bft) 97,87 %
30.09.2021 18:20 14,5 C 13,9 C 11,7 C 69 % 1024,0 hPa 0,0 l/m 0 min 0 min 35 W/m 16,1 km/h (3 Bft) 97,83 %
30.09.2021 18:22 14,5 C 13,9 C 11,7 C 69 % 1024,0 hPa 0,0 l/m 0 min 0 min 35 W/m 25,7 km/h (4 Bft) 97,87 %
30.09.2021 18:24 14,5 C 13,9 C 11,7 C 69 % 1024,0 hPa 0,0 l/m 0 min 0 min 35 W/m 16,1 km/h (3 Bft) 97,87 %
30.09.2021 18:26 14,4 C 13,9 C 11,7 C 69 % 1024,0 hPa 0,0 l/m 0 min 0 min 35 W/m 25,7 km/h (4 Bft) 96,23 %
30.09.2021 18:28 14,4 C 13,9 C 11,7 C 69 % 1024,0 hPa 0,0 l/m 0 min 0 min 33 W/m 19,3 km/h (3 Bft) 95,74 %
30.09.2021 18:30 14,4 C 13,9 C 11,7 C 69 % 1023,9 hPa 0,0 l/m 0 min 0 min 30 W/m 16,1 km/h (3 Bft) 95,65 %
30.09.2021 18:32 14,4 C 13,9 C 11,7 C 68 % 1023,9 hPa 0,0 l/m 0 min 0 min 26 W/m 19,3 km/h (3 Bft) 95,12 %
30.09.2021 18:34 14,3 C 13,9 C 11,7 C 68 % 1023,9 hPa 0,0 l/m 0 min 0 min 23 W/m 12,9 km/h (3 Bft) 95,74 %
30.09.2021 18:36 14,2 C 13,3 C 11,7 C 69 % 1023,9 hPa 0,0 l/m 0 min 0 min 20 W/m 12,9 km/h (3 Bft) 95,74 %
30.09.2021 18:38 14,2 C 13,3 C 11,1 C 69 % 1023,9 hPa 0,0 l/m 0 min 0 min 19 W/m 25,7 km/h (4 Bft) 94,34 %
30.09.2021 18:40 14,2 C 13,3 C 11,1 C 69 % 1023,9 hPa 0,0 l/m 0 min 0 min 18 W/m 19,3 km/h (3 Bft) 95,74 %
30.09.2021 18:42 14,2 C 13,3 C 11,1 C 69 % 1023,9 hPa 0,0 l/m 0 min 0 min 16 W/m 9,7 km/h (2 Bft) 95,65 %
30.09.2021 18:44 14,2 C 13,3 C 11,1 C 69 % 1023,8 hPa 0,0 l/m 0 min 0 min 13 W/m 16,1 km/h (3 Bft) 93,62 %
30.09.2021 18:46 14,2 C 13,3 C 11,1 C 69 % 1023,9 hPa 0,0 l/m 0 min 0 min 12 W/m 22,5 km/h (4 Bft) 95,12 %
30.09.2021 18:48 14,2 C 13,3 C 11,1 C 70 % 1023,9 hPa 0,0 l/m 0 min 0 min 11 W/m 9,7 km/h (2 Bft) 97,87 %
30.09.2021 18:50 14,1 C 13,3 C 11,1 C 70 % 1023,9 hPa 0,0 l/m 0 min 0 min 11 W/m 16,1 km/h (3 Bft) 97,87 %
30.09.2021 18:52 14,1 C 13,3 C 11,1 C 70 % 1023,8 hPa 0,0 l/m 0 min 0 min 11 W/m 19,3 km/h (3 Bft) 97,87 %
30.09.2021 18:54 14,0 C 13,3 C 11,1 C 70 % 1023,8 hPa 0,0 l/m 0 min 0 min 11 W/m 12,9 km/h (3 Bft) 97,87 %
30.09.2021 18:56 14,0 C 13,3 C 11,1 C 70 % 1023,9 hPa 0,0 l/m 0 min 0 min 11 W/m 19,3 km/h (3 Bft) 97,83 %
30.09.2021 18:58 14,0 C 13,3 C 11,1 C 70 % 1023,8 hPa 0,0 l/m 0 min 0 min 10 W/m 25,7 km/h (4 Bft) 98,11 %
30.09.2021 19:00 14,0 C 13,3 C 11,1 C 70 % 1023,8 hPa 0,0 l/m 0 min 0 min 9 W/m 12,9 km/h (3 Bft) 100,00 %
30.09.2021 19:02 14,0 C 13,3 C 11,1 C 70 % 1023,8 hPa 0,0 l/m 0 min 0 min 8 W/m 12,9 km/h (3 Bft) 98,00 %
30.09.2021 19:04 14,0 C 13,3 C 11,1 C 71 % 1023,9 hPa 0,0 l/m 0 min 0 min 6 W/m 12,9 km/h (3 Bft) 97,83 %
30.09.2021 19:06 13,9 C 12,8 C 11,1 C 71 % 1023,9 hPa 0,0 l/m 0 min 0 min 5 W/m 6,4 km/h (2 Bft) 100,00 %
30.09.2021 19:08 13,9 C 12,8 C 11,1 C 71 % 1023,8 hPa 0,0 l/m 0 min 0 min 0 W/m 9,7 km/h (2 Bft) 100,00 %
30.09.2021 19:10 13,9 C 12,8 C 11,1 C 71 % 1023,8 hPa 0,0 l/m 0 min 0 min 0 W/m 6,4 km/h (2 Bft) 100,00 %
30.09.2021 19:12 13,9 C 12,8 C 11,1 C 71 % 1023,9 hPa 0,0 l/m 0 min 0 min 0 W/m 12,9 km/h (3 Bft) 95,74 %
30.09.2021 19:14 13,9 C 12,8 C 11,1 C 71 % 1023,8 hPa 0,0 l/m 0 min 0 min 0 W/m 6,4 km/h (2 Bft) 97,87 %
30.09.2021 19:16 13,8 C 12,8 C 11,1 C 72 % 1023,8 hPa 0,0 l/m 0 min 0 min 0 W/m 6,4 km/h (2 Bft) 97,83 %
30.09.2021 19:18 13,8 C 12,8 C 11,1 C 72 % 1023,7 hPa 0,0 l/m 0 min 0 min 0 W/m 6,4 km/h (2 Bft) 93,62 %
30.09.2021 19:20 13,8 C 12,8 C 11,1 C 72 % 1023,8 hPa 0,0 l/m 0 min 0 min 0 W/m 6,4 km/h (2 Bft) 95,74 %
30.09.2021 19:22 13,8 C 12,8 C 11,1 C 72 % 1023,7 hPa 0,0 l/m 0 min 0 min 0 W/m 6,4 km/h (2 Bft) 95,74 %
30.09.2021 19:24 13,7 C 12,8 C 10,6 C 73 % 1023,7 hPa 0,0 l/m 0 min 0 min 0 W/m 16,1 km/h (3 Bft) 97,87 %
30.09.2021 19:26 13,7 C 12,8 C 10,6 C 73 % 1023,7 hPa 0,0 l/m 0 min 0 min 0 W/m 6,4 km/h (2 Bft) 93,62 %
30.09.2021 19:28 13,7 C 12,8 C 10,6 C 73 % 1023,7 hPa 0,0 l/m 0 min 0 min 0 W/m 6,4 km/h (2 Bft) 97,83 %
30.09.2021 19:30 13,6 C 12,8 C 10,6 C 73 % 1023,7 hPa 0,0 l/m 0 min 0 min 0 W/m 6,4 km/h (2 Bft) 95,74 %
30.09.2021 19:32 13,6 C 12,8 C 10,6 C 73 % 1023,8 hPa 0,0 l/m 0 min 0 min 0 W/m 9,7 km/h (2 Bft) 97,87 %
30.09.2021 19:34 13,6 C 12,8 C 10,6 C 73 % 1023,7 hPa 0,0 l/m 0 min 0 min 0 W/m 12,9 km/h (3 Bft) 97,87 %
30.09.2021 19:36 13,6 C 12,8 C 10,6 C 73 % 1023,7 hPa 0,0 l/m 0 min 0 min 0 W/m 6,4 km/h (2 Bft) 97,87 %
30.09.2021 19:38 13,6 C 12,8 C 10,6 C 73 % 1023,7 hPa 0,0 l/m 0 min 0 min 0 W/m 6,4 km/h (2 Bft) 95,92 %
30.09.2021 19:40 13,5 C 12,8 C 10,6 C 73 % 1023,7 hPa 0,0 l/m 0 min 0 min 0 W/m 6,4 km/h (2 Bft) 97,87 %
30.09.2021 19:42 13,5 C 12,8 C 10,6 C 73 % 1023,7 hPa 0,0 l/m 0 min 0 min 0 W/m 9,7 km/h (2 Bft) 97,87 %
30.09.2021 19:44 13,5 C 12,8 C 10,6 C 73 % 1023,7 hPa 0,0 l/m 0 min 0 min 0 W/m 9,7 km/h (2 Bft) 97,14 %
30.09.2021 19:46 13,5 C 12,8 C 10,6 C 73 % 1023,6 hPa 0,0 l/m 0 min 0 min 0 W/m 6,4 km/h (2 Bft) 98,21 %
30.09.2021 19:48 13,5 C 12,8 C 10,6 C 73 % 1023,6 hPa 0,0 l/m 0 min 0 min 0 W/m 12,9 km/h (3 Bft) 95,74 %
30.09.2021 19:50 13,5 C 12,8 C 10,6 C 73 % 1023,6 hPa 0,0 l/m 0 min 0 min 0 W/m 12,9 km/h (3 Bft) 97,87 %
30.09.2021 19:52 13,5 C 12,8 C 10,6 C 74 % 1023,5 hPa 0,0 l/m 0 min 0 min 0 W/m 3,2 km/h (1 Bft) 97,92 %
30.09.2021 19:54 13,5 C 12,8 C 10,6 C 74 % 1023,5 hPa 0,0 l/m 0 min 0 min 0 W/m 12,9 km/h (3 Bft) 93,62 %
30.09.2021 19:56 13,5 C 12,8 C 10,6 C 74 % 1023,5 hPa 0,0 l/m 0 min 0 min 0 W/m 6,4 km/h (2 Bft) 97,87 %
30.09.2021 19:58 13,4 C 12,8 C 10,6 C 74 % 1023,5 hPa 0,0 l/m 0 min 0 min 0 W/m 3,2 km/h (1 Bft) 97,87 %
30.09.2021 20:00 13,4 C 12,8 C 10,6 C 74 % 1023,5 hPa 0,0 l/m 0 min 0 min 0 W/m 3,2 km/h (1 Bft) 100,00 %
30.09.2021 20:02 13,4 C 12,8 C 10,6 C 74 % 1023,4 hPa 0,0 l/m 0 min 0 min 0 W/m 12,9 km/h (3 Bft) 100,00 %
30.09.2021 20:04 13,4 C 12,8 C 10,6 C 74 % 1023,4 hPa 0,0 l/m 0 min 0 min 0 W/m 6,4 km/h (2 Bft) 100,00 %
30.09.2021 20:06 13,4 C 12,8 C 10,6 C 74 % 1023,4 hPa 0,0 l/m 0 min 0 min 0 W/m 3,2 km/h (1 Bft) 100,00 %
30.09.2021 20:08 13,4 C 12,8 C 10,6 C 74 % 1023,4 hPa 0,0 l/m 0 min 0 min 0 W/m 3,2 km/h (1 Bft) 100,00 %
30.09.2021 20:10 13,4 C 12,2 C 10,6 C 74 % 1023,3 hPa 0,0 l/m 0 min 0 min 0 W/m 6,4 km/h (2 Bft) 97,87 %
30.09.2021 20:12 13,3 C 12,8 C 10,6 C 75 % 1023,3 hPa 0,0 l/m 0 min 0 min 0 W/m 6,4 km/h (2 Bft) 97,14 %
30.09.2021 20:14 13,3 C 12,8 C 10,6 C 74 % 1023,3 hPa 0,0 l/m 0 min 0 min 0 W/m 12,9 km/h (3 Bft) 100,00 %
30.09.2021 20:16 13,3 C 12,8 C 10,6 C 74 % 1023,3 hPa 0,0 l/m 0 min 0 min 0 W/m 6,4 km/h (2 Bft) 100,00 %
30.09.2021 20:18 13,3 C 12,8 C 10,6 C 74 % 1023,3 hPa 0,0 l/m 0 min 0 min 0 W/m 3,2 km/h (1 Bft) 100,00 %
30.09.2021 20:20 13,3 C 12,8 C 10,6 C 74 % 1023,3 hPa 0,0 l/m 0 min 0 min 0 W/m 6,4 km/h (2 Bft) 98,18 %
30.09.2021 20:22 13,3 C 12,8 C 10,6 C 74 % 1023,3 hPa 0,0 l/m 0 min 0 min 0 W/m 6,4 km/h (2 Bft) 97,87 %
30.09.2021 20:24 13,3 C 12,8 C 10,6 C 74 % 1023,4 hPa 0,0 l/m 0 min 0 min 0 W/m 6,4 km/h (2 Bft) 95,74 %
30.09.2021 20:26 13,3 C 12,8 C 10,6 C 75 % 1023,4 hPa 0,0 l/m 0 min 0 min 0 W/m 6,4 km/h (2 Bft) 95,65 %
30.09.2021 20:28 13,3 C 12,8 C 10,6 C 75 % 1023,4 hPa 0,0 l/m 0 min 0 min 0 W/m 6,4 km/h (2 Bft) 97,87 %
30.09.2021 20:30 13,3 C 12,2 C 10,6 C 75 % 1023,4 hPa 0,0 l/m 0 min 0 min 0 W/m 6,4 km/h (2 Bft) 97,87 %
30.09.2021 20:32 13,2 C 12,2 C 10,6 C 75 % 1023,4 hPa 0,0 l/m 0 min 0 min 0 W/m 3,2 km/h (1 Bft) 98,00 %
30.09.2021 20:34 13,2 C 12,2 C 10,6 C 75 % 1023,4 hPa 0,0 l/m 0 min 0 min 0 W/m 12,9 km/h (3 Bft) 95,83 %
30.09.2021 20:36 13,2 C 12,2 C 10,6 C 75 % 1023,4 hPa 0,0 l/m 0 min 0 min 0 W/m 6,4 km/h (2 Bft) 95,65 %
30.09.2021 20:38 13,2 C 12,2 C 10,6 C 75 % 1023,4 hPa 0,0 l/m 0 min 0 min 0 W/m 6,4 km/h (2 Bft) 97,87 %
30.09.2021 20:40 13,1 C 12,2 C 10,6 C 75 % 1023,4 hPa 0,0 l/m 0 min 0 min 0 W/m 6,4 km/h (2 Bft) 95,74 %
30.09.2021 20:42 13,1 C 12,2 C 10,6 C 75 % 1023,4 hPa 0,0 l/m 0 min 0 min 0 W/m 6,4 km/h (2 Bft) 94,29 %
30.09.2021 20:44 13,1 C 12,2 C 10,6 C 75 % 1023,4 hPa 0,0 l/m 0 min 0 min 0 W/m 6,4 km/h (2 Bft) 96,36 %
30.09.2021 20:46 13,1 C 12,2 C 10,6 C 75 % 1023,4 hPa 0,0 l/m 0 min 0 min 0 W/m 9,7 km/h (2 Bft) 95,74 %
30.09.2021 20:48 13,1 C 12,2 C 10,6 C 75 % 1023,4 hPa 0,0 l/m 0 min 0 min 0 W/m 6,4 km/h (2 Bft) 95,65 %
30.09.2021 20:50 13,1 C 12,2 C 10,6 C 75 % 1023,4 hPa 0,0 l/m 0 min 0 min 0 W/m 6,4 km/h (2 Bft) 95,74 %
30.09.2021 20:52 13,0 C 12,2 C 10,6 C 75 % 1023,4 hPa 0,0 l/m 0 min 0 min 0 W/m 6,4 km/h (2 Bft) 91,49 %
30.09.2021 20:54 13,0 C 12,2 C 10,6 C 75 % 1023,4 hPa 0,0 l/m 0 min 0 min 0 W/m 6,4 km/h (2 Bft) 97,87 %
30.09.2021 20:56 13,0 C 12,2 C 10,6 C 76 % 1023,4 hPa 0,0 l/m 0 min 0 min 0 W/m 12,9 km/h (3 Bft) 97,87 %
30.09.2021 20:58 13,0 C 12,2 C 10,6 C 76 % 1023,4 hPa 0,0 l/m 0 min 0 min 0 W/m 6,4 km/h (2 Bft) 97,87 %
30.09.2021 21:00 13,0 C 12,2 C 10,6 C 76 % 1023,4 hPa 0,0 l/m 0 min 0 min 0 W/m 6,4 km/h (2 Bft) 97,87 %
30.09.2021 21:02 13,0 C 12,2 C 10,6 C 76 % 1023,4 hPa 0,0 l/m 0 min 0 min 0 W/m 3,2 km/h (1 Bft) 97,83 %
30.09.2021 21:04 13,0 C 12,2 C 10,6 C 76 % 1023,3 hPa 0,0 l/m 0 min 0 min 0 W/m 6,4 km/h (2 Bft) 98,00 %
30.09.2021 21:06 13,0 C 12,2 C 10,6 C 76 % 1023,3 hPa 0,0 l/m 0 min 0 min 0 W/m 12,9 km/h (3 Bft) 95,74 %
30.09.2021 21:08 12,9 C 12,2 C 10,0 C 76 % 1023,3 hPa 0,0 l/m 0 min 0 min 0 W/m 6,4 km/h (2 Bft) 97,87 %
30.09.2021 21:10 12,9 C 12,2 C 10,0 C 76 % 1023,2 hPa 0,0 l/m 0 min 0 min 0 W/m 9,7 km/h (2 Bft) 97,87 %
30.09.2021 21:12 12,9 C 12,2 C 10,0 C 76 % 1023,2 hPa 0,0 l/m 0 min 0 min 0 W/m 12,9 km/h (3 Bft) 97,83 %
30.09.2021 21:14 12,9 C 12,2 C 10,0 C 77 % 1023,2 hPa 0,0 l/m 0 min 0 min 0 W/m 9,7 km/h (2 Bft) 95,74 %
30.09.2021 21:16 12,9 C 12,2 C 10,0 C 77 % 1023,2 hPa 0,0 l/m 0 min 0 min 0 W/m 3,2 km/h (1 Bft) 97,87 %
30.09.2021 21:18 12,9 C 12,2 C 10,0 C 77 % 1023,2 hPa 0,0 l/m 0 min 0 min 0 W/m 6,4 km/h (2 Bft) 97,87 %
30.09.2021 21:20 12,9 C 12,2 C 10,0 C 77 % 1023,2 hPa 0,0 l/m 0 min 0 min 0 W/m 6,4 km/h (2 Bft) 93,62 %
30.09.2021 21:22 12,9 C 12,2 C 10,0 C 77 % 1023,2 hPa 0,0 l/m 0 min 0 min 0 W/m 6,4 km/h (2 Bft) 100,00 %
30.09.2021 21:24 12,8 C 12,2 C 10,0 C 77 % 1023,2 hPa 0,0 l/m 0 min 0 min 0 W/m 6,4 km/h (2 Bft) 100,00 %
30.09.2021 21:26 12,8 C 12,2 C 10,0 C 77 % 1023,1 hPa 0,0 l/m 0 min 0 min 0 W/m 9,7 km/h (2 Bft) 100,00 %
30.09.2021 21:28 12,8 C 12,2 C 10,0 C 77 % 1023,1 hPa 0,0 l/m 0 min 0 min 0 W/m 3,2 km/h (1 Bft) 100,00 %
30.09.2021 21:30 12,8 C 12,2 C 10,0 C 77 % 1023,1 hPa 0,0 l/m 0 min 0 min 0 W/m 6,4 km/h (2 Bft) 100,00 %
30.09.2021 21:32 12,8 C 12,2 C 10,0 C 77 % 1023,1 hPa 0,0 l/m 0 min 0 min 0 W/m 6,4 km/h (2 Bft) 100,00 %
30.09.2021 21:34 12,8 C 12,2 C 10,0 C 77 % 1023,0 hPa 0,0 l/m 0 min 0 min 0 W/m 9,7 km/h (2 Bft) 100,00 %
30.09.2021 21:36 12,8 C 12,2 C 10,0 C 77 % 1023,1 hPa 0,0 l/m 0 min 0 min 0 W/m 6,4 km/h (2 Bft) 100,00 %
30.09.2021 21:38 12,8 C 12,2 C 10,0 C 77 % 1023,0 hPa 0,0 l/m 0 min 0 min 0 W/m 6,4 km/h (2 Bft) 100,00 %
30.09.2021 21:40 12,8 C 12,2 C 10,0 C 77 % 1023,0 hPa 0,0 l/m 0 min 0 min 0 W/m 6,4 km/h (2 Bft) 100,00 %
30.09.2021 21:42 12,8 C 12,2 C 10,0 C 77 % 1023,0 hPa 0,0 l/m 0 min 0 min 0 W/m 6,4 km/h (2 Bft) 100,00 %
30.09.2021 21:44 12,8 C 12,2 C 10,0 C 77 % 1023,0 hPa 0,0 l/m 0 min 0 min 0 W/m 12,9 km/h (3 Bft) 100,00 %
30.09.2021 21:46 12,8 C 12,2 C 10,0 C 77 % 1023,1 hPa 0,0 l/m 0 min 0 min 0 W/m 6,4 km/h (2 Bft) 100,00 %
30.09.2021 21:48 12,8 C 12,2 C 10,0 C 77 % 1023,0 hPa 0,0 l/m 0 min 0 min 0 W/m 6,4 km/h (2 Bft) 100,00 %
30.09.2021 21:50 12,8 C 12,2 C 10,0 C 77 % 1023,0 hPa 0,0 l/m 0 min 0 min 0 W/m 6,4 km/h (2 Bft) 100,00 %
30.09.2021 21:52 12,8 C 12,2 C 10,0 C 77 % 1023,0 hPa 0,0 l/m 0 min 0 min 0 W/m 6,4 km/h (2 Bft) 97,87 %
30.09.2021 21:54 12,7 C 12,2 C 10,0 C 77 % 1023,0 hPa 0,0 l/m 0 min 0 min 0 W/m 6,4 km/h (2 Bft) 100,00 %
30.09.2021 21:56 12,7 C 12,2 C 10,0 C 77 % 1023,0 hPa 0,0 l/m 0 min 0 min 0 W/m 3,2 km/h (1 Bft) 98,11 %
30.09.2021 21:58 12,7 C 11,7 C 10,0 C 77 % 1023,0 hPa 0,0 l/m 0 min 0 min 0 W/m 3,2 km/h (1 Bft) 100,00 %
30.09.2021 22:00 12,7 C 11,7 C 10,0 C 77 % 1023,0 hPa 0,0 l/m 0 min 0 min 0 W/m 6,4 km/h (2 Bft) 100,00 %
30.09.2021 22:02 12,7 C 11,7 C 10,0 C 77 % 1023,0 hPa 0,0 l/m 0 min 0 min 0 W/m 6,4 km/h (2 Bft) 93,75 %
30.09.2021 22:04 12,6 C 11,7 C 10,0 C 77 % 1023,0 hPa 0,0 l/m 0 min 0 min 0 W/m 6,4 km/h (2 Bft) 100,00 %
30.09.2021 22:06 12,6 C 11,7 C 10,0 C 77 % 1023,0 hPa 0,0 l/m 0 min 0 min 0 W/m 9,7 km/h (2 Bft) 97,87 %
30.09.2021 22:08 12,6 C 11,7 C 10,0 C 78 % 1023,0 hPa 0,0 l/m 0 min 0 min 0 W/m 6,4 km/h (2 Bft) 100,00 %
30.09.2021 22:10 12,6 C 11,7 C 10,0 C 78 % 1023,0 hPa 0,0 l/m 0 min 0 min 0 W/m 6,4 km/h (2 Bft) 97,83 %
30.09.2021 22:12 12,6 C 11,7 C 10,0 C 78 % 1023,0 hPa 0,0 l/m 0 min 0 min 0 W/m 9,7 km/h (2 Bft) 97,87 %
30.09.2021 22:14 12,6 C 11,7 C 10,0 C 78 % 1023,0 hPa 0,0 l/m 0 min 0 min 0 W/m 6,4 km/h (2 Bft) 93,62 %
30.09.2021 22:16 12,5 C 11,7 C 10,0 C 78 % 1022,9 hPa 0,0 l/m 0 min 0 min 0 W/m 12,9 km/h (3 Bft) 95,74 %
30.09.2021 22:18 12,5 C 11,7 C 10,0 C 78 % 1022,9 hPa 0,0 l/m 0 min 0 min 0 W/m 6,4 km/h (2 Bft) 95,74 %
30.09.2021 22:20 12,5 C 11,7 C 10,0 C 78 % 1023,0 hPa 0,0 l/m 0 min 0 min 0 W/m 6,4 km/h (2 Bft) 95,74 %
30.09.2021 22:22 12,5 C 11,7 C 10,0 C 78 % 1023,0 hPa 0,0 l/m 0 min 0 min 0 W/m 3,2 km/h (1 Bft) 93,48 %
30.09.2021 22:24 12,5 C 11,7 C 10,0 C 78 % 1022,9 hPa 0,0 l/m 0 min 0 min 0 W/m 6,4 km/h (2 Bft) 95,74 %
30.09.2021 22:26 12,4 C 11,7 C 10,0 C 78 % 1022,9 hPa 0,0 l/m 0 min 0 min 0 W/m 12,9 km/h (3 Bft) 93,62 %
30.09.2021 22:28 12,4 C 11,7 C 9,5 C 78 % 1022,9 hPa 0,0 l/m 0 min 0 min 0 W/m 6,4 km/h (2 Bft) 95,74 %
30.09.2021 22:30 12,4 C 11,7 C 9,5 C 78 % 1022,9 hPa 0,0 l/m 0 min 0 min 0 W/m 6,4 km/h (2 Bft) 91,49 %
30.09.2021 22:32 12,4 C 11,7 C 9,5 C 78 % 1022,9 hPa 0,0 l/m 0 min 0 min 0 W/m 3,2 km/h (1 Bft) 95,74 %
30.09.2021 22:34 12,3 C 11,7 C 9,5 C 78 % 1022,9 hPa 0,0 l/m 0 min 0 min 0 W/m 9,7 km/h (2 Bft) 93,48 %
30.09.2021 22:36 12,3 C 11,7 C 9,5 C 78 % 1022,9 hPa 0,0 l/m 0 min 0 min 0 W/m 6,4 km/h (2 Bft) 95,74 %
30.09.2021 22:38 12,3 C 11,1 C 9,5 C 79 % 1022,9 hPa 0,0 l/m 0 min 0 min 0 W/m 6,4 km/h (2 Bft) 95,74 %
30.09.2021 22:40 12,3 C 11,1 C 9,5 C 79 % 1023,0 hPa 0,0 l/m 0 min 0 min 0 W/m 6,4 km/h (2 Bft) 93,62 %
30.09.2021 22:42 12,2 C 11,1 C 9,5 C 79 % 1023,0 hPa 0,0 l/m 0 min 0 min 0 W/m 9,7 km/h (2 Bft) 95,74 %
30.09.2021 22:44 12,2 C 11,1 C 9,5 C 79 % 1023,0 hPa 0,0 l/m 0 min 0 min 0 W/m 12,9 km/h (3 Bft) 95,74 %
30.09.2021 22:46 12,2 C 11,1 C 9,5 C 79 % 1023,0 hPa 0,0 l/m 0 min 0 min 0 W/m 6,4 km/h (2 Bft) 93,48 %
30.09.2021 22:48 12,1 C 11,1 C 9,5 C 79 % 1022,9 hPa 0,0 l/m 0 min 0 min 0 W/m 6,4 km/h (2 Bft) 97,87 %
30.09.2021 22:50 12,1 C 11,1 C 9,5 C 79 % 1022,9 hPa 0,0 l/m 0 min 0 min 0 W/m 6,4 km/h (2 Bft) 95,74 %
30.09.2021 22:52 12,1 C 11,7 C 9,5 C 79 % 1022,9 hPa 0,0 l/m 0 min 0 min 0 W/m 6,4 km/h (2 Bft) 97,87 %
30.09.2021 22:54 12,1 C 11,7 C 9,5 C 79 % 1022,9 hPa 0,0 l/m 0 min 0 min 0 W/m 9,7 km/h (2 Bft) 95,74 %
30.09.2021 22:56 12,1 C 11,1 C 9,5 C 79 % 1022,9 hPa 0,0 l/m 0 min 0 min 0 W/m 12,9 km/h (3 Bft) 97,87 %
30.09.2021 22:58 12,1 C 11,1 C 9,5 C 79 % 1022,8 hPa 0,0 l/m 0 min 0 min 0 W/m 6,4 km/h (2 Bft) 97,83 %
30.09.2021 23:00 12,1 C 11,1 C 9,5 C 79 % 1022,8 hPa 0,0 l/m 0 min 0 min 0 W/m 6,4 km/h (2 Bft) 100,00 %
30.09.2021 23:02 12,1 C 11,1 C 9,5 C 79 % 1022,8 hPa 0,0 l/m 0 min 0 min 0 W/m 6,4 km/h (2 Bft) 100,00 %
30.09.2021 23:04 12,0 C 11,1 C 9,5 C 79 % 1022,8 hPa 0,0 l/m 0 min 0 min 0 W/m 9,7 km/h (2 Bft) 97,87 %
30.09.2021 23:06 12,0 C 11,1 C 9,5 C 79 % 1022,8 hPa 0,0 l/m 0 min 0 min 0 W/m 6,4 km/h (2 Bft) 97,87 %
30.09.2021 23:08 12,0 C 11,1 C 9,5 C 79 % 1022,8 hPa 0,0 l/m 0 min 0 min 0 W/m 6,4 km/h (2 Bft) 97,83 %
30.09.2021 23:10 12,0 C 11,1 C 9,5 C 79 % 1022,7 hPa 0,0 l/m 0 min 0 min 0 W/m 6,4 km/h (2 Bft) 97,87 %
30.09.2021 23:12 12,0 C 11,1 C 9,5 C 79 % 1022,7 hPa 0,0 l/m 0 min 0 min 0 W/m 6,4 km/h (2 Bft) 97,87 %
30.09.2021 23:14 12,0 C 11,1 C 9,5 C 79 % 1022,7 hPa 0,0 l/m 0 min 0 min 0 W/m 6,4 km/h (2 Bft) 97,87 %
30.09.2021 23:16 12,0 C 11,1 C 9,5 C 79 % 1022,6 hPa 0,0 l/m 0 min 0 min 0 W/m 6,4 km/h (2 Bft) 95,74 %
30.09.2021 23:18 12,0 C 11,1 C 9,5 C 79 % 1022,7 hPa 0,0 l/m 0 min 0 min 0 W/m 9,7 km/h (2 Bft) 97,87 %
30.09.2021 23:20 11,9 C 11,1 C 9,5 C 80 % 1022,7 hPa 0,0 l/m 0 min 0 min 0 W/m 6,4 km/h (2 Bft) 97,83 %
30.09.2021 23:22 11,9 C 11,1 C 9,5 C 80 % 1022,6 hPa 0,0 l/m 0 min 0 min 0 W/m 6,4 km/h (2 Bft) 97,87 %
30.09.2021 23:24 11,9 C 11,1 C 9,5 C 79 % 1022,6 hPa 0,0 l/m 0 min 0 min 0 W/m 6,4 km/h (2 Bft) 97,87 %
30.09.2021 23:26 11,9 C 11,1 C 9,5 C 80 % 1022,6 hPa 0,0 l/m 0 min 0 min 0 W/m 6,4 km/h (2 Bft) 97,87 %
30.09.2021 23:28 11,8 C 10,6 C 9,5 C 80 % 1022,6 hPa 0,0 l/m 0 min 0 min 0 W/m 6,4 km/h (2 Bft) 97,87 %
30.09.2021 23:30 11,8 C 10,6 C 9,5 C 80 % 1022,6 hPa 0,0 l/m 0 min 0 min 0 W/m 9,7 km/h (2 Bft) 97,87 %
30.09.2021 23:32 11,8 C 10,6 C 9,5 C 80 % 1022,6 hPa 0,0 l/m 0 min 0 min 0 W/m 6,4 km/h (2 Bft) 97,87 %
30.09.2021 23:34 11,7 C 10,6 C 8,9 C 80 % 1022,5 hPa 0,0 l/m 0 min 0 min 0 W/m 6,4 km/h (2 Bft) 97,87 %
30.09.2021 23:36 11,7 C 10,6 C 8,9 C 80 % 1022,5 hPa 0,0 l/m 0 min 0 min 0 W/m 6,4 km/h (2 Bft) 97,87 %
30.09.2021 23:38 11,6 C 10,6 C 8,9 C 80 % 1022,5 hPa 0,0 l/m 0 min 0 min 0 W/m 9,7 km/h (2 Bft) 95,74 %
30.09.2021 23:40 11,6 C 10,6 C 8,9 C 80 % 1022,5 hPa 0,0 l/m 0 min 0 min 0 W/m 9,7 km/h (2 Bft) 97,87 %
30.09.2021 23:42 11,6 C 10,6 C 8,9 C 80 % 1022,4 hPa 0,0 l/m 0 min 0 min 0 W/m 6,4 km/h (2 Bft) 95,74 %
30.09.2021 23:44 11,5 C 10,6 C 8,9 C 80 % 1022,5 hPa 0,0 l/m 0 min 0 min 0 W/m 16,1 km/h (3 Bft) 97,83 %
30.09.2021 23:46 11,5 C 10,6 C 8,9 C 80 % 1022,4 hPa 0,0 l/m 0 min 0 min 0 W/m 9,7 km/h (2 Bft) 97,87 %
30.09.2021 23:48 11,5 C 10,6 C 8,9 C 80 % 1022,4 hPa 0,0 l/m 0 min 0 min 0 W/m 6,4 km/h (2 Bft) 97,87 %
30.09.2021 23:50 11,5 C 10,6 C 8,9 C 80 % 1022,3 hPa 0,0 l/m 0 min 0 min 0 W/m 12,9 km/h (3 Bft) 100,00 %
30.09.2021 23:52 11,4 C 10,6 C 8,9 C 81 % 1022,2 hPa 0,0 l/m 0 min 0 min 0 W/m 6,4 km/h (2 Bft) 100,00 %
30.09.2021 23:54 11,4 C 10,6 C 8,9 C 81 % 1022,3 hPa 0,0 l/m 0 min 0 min 0 W/m 12,9 km/h (3 Bft) 100,00 %
30.09.2021 23:56 11,4 C 10,6 C 8,9 C 81 % 1022,2 hPa 0,0 l/m 0 min 0 min 0 W/m 12,9 km/h (3 Bft) 100,00 %
30.09.2021 23:58 11,4 C 10,6 C 8,9 C 81 % 1022,2 hPa 0,0 l/m 0 min 0 min 0 W/m 12,9 km/h (3 Bft) 97,87 %
_ Min-Zeit 07:24 05:34 04:44 13:24 23:52 - - - - 00:14 15:18
Minimum _ 7,8 C 7,2 C 7,3 C 63 % 1022,2 hPa - - - - 3,2 km/h (1 Bft) 44,74 %
_ Max-Zeit 14:38 11:48 11:44 00:00 11:22 11:24 09:36 00:00 11:52 12:50 00:00
Maximum _ 15,5 C 20,6 C 20,6 C 91 % 1027,2 hPa 0,2 l/m 2 min 0 min 638 W/m 35,4 km/h
S (5 Bft)
100,00 %
Durchschnitt _ 11,6 C 11,3 C 10,2 C 80 % 1025,1 hPa #0,2 l/m #3:18 h #0 min. 174 W/m 13,1 km/h (3 Bft) 97,44 %
© 2021 W. Hausmann